| time (UTC) | temp F | wind direction | speed MPH | gust MPH | rain 1hr in | rain 24hr in | rain mn in | humidity % | barometer mb |
| 20260502130550 | 72 | 136 | 2.0 | 6.0 | 0.00 | 0.00 | 0.00 | 49 | 1447.8 |
| 20260502130350 | 72 | 134 | 2.0 | 6.0 | 0.00 | 0.00 | 0.00 | 48 | 1448.4 |
| 20260502130150 | 73 | 134 | 2.0 | 5.0 | 0.00 | 0.00 | 0.00 | 49 | 1448.9 |
| 20260502123750 | 70 | 135 | 2.0 | 6.0 | 0.00 | 0.00 | 0.00 | 51 | 1445.6 |
| 20260502123550 | 71 | 140 | 2.0 | 6.0 | 0.00 | 0.00 | 0.00 | 52 | 1446.4 |
| 20260502123350 | 71 | 136 | 2.0 | 6.0 | 0.00 | 0.00 | 0.00 | 52 | 1446.8 |
| 20260502123150 | 71 | 162 | 3.0 | 6.0 | 0.00 | 0.00 | 0.00 | 52 | 1446.4 |
| 20260502122950 | 70 | 137 | 2.0 | 6.0 | 0.00 | 0.00 | 0.00 | 53 | 1445.9 |
| 20260502122750 | 70 | 160 | 2.0 | 6.0 | 0.00 | 0.00 | 0.00 | 53 | 1445.4 |
| 20260502122551 | 70 | 139 | 2.0 | 6.0 | 0.00 | 0.00 | 0.00 | 53 | 1444.8 |
| 20260502122350 | 69 | 154 | 2.0 | 6.0 | 0.00 | 0.00 | 0.00 | 54 | 1444.1 |
| 20260502122150 | 68 | 166 | 3.0 | 8.0 | 0.00 | 0.00 | 0.00 | 54 | 1443.2 |
| 20260502121950 | 68 | 173 | 2.0 | 8.0 | 0.00 | 0.00 | 0.00 | 54 | 1442.7 |
| 20260502121751 | 68 | 181 | 2.0 | 10.0 | 0.00 | 0.00 | 0.00 | 55 | 1442.3 |
| 20260502121550 | 67 | 195 | 2.0 | 10.0 | 0.00 | 0.00 | 0.00 | 56 | 1441.7 |
| 20260502121350 | 67 | 154 | 2.0 | 10.0 | 0.00 | 0.00 | 0.00 | 57 | 1441.5 |
| 20260502121150 | 66 | 176 | 4.0 | 10.0 | 0.00 | 0.00 | 0.00 | 56 | 1440.6 |
| 20260502120950 | 67 | 195 | 3.0 | 9.0 | 0.00 | 0.00 | 0.00 | 56 | 1441.4 |
| 20260502120750 | 67 | 169 | 2.0 | 8.0 | 0.00 | 0.00 | 0.00 | 56 | 1441.5 |
| 20260502120550 | 67 | 200 | 3.0 | 8.0 | 0.00 | 0.00 | 0.00 | 57 | 1441.4 |
| 20260502120350 | 67 | 180 | 2.0 | 7.0 | 0.00 | 0.00 | 0.00 | 56 | 1441.7 |
| 20260502120150 | 67 | 193 | 2.0 | 7.0 | 0.00 | 0.00 | 0.00 | 57 | 1441.3 |
| 20260502115750 | 66 | 167 | 3.0 | 6.0 | 0.00 | 0.00 | 0.00 | 57 | 1440.5 |
| 20260502115550 | 66 | 152 | 3.0 | 7.0 | 0.00 | 0.00 | 0.00 | 58 | 1439.8 |
| 20260502115350 | 66 | 141 | 2.0 | 7.0 | 0.00 | 0.00 | 0.00 | 58 | 1439.7 |
| 20260502115150 | 65 | 130 | 2.0 | 7.0 | 0.00 | 0.00 | 0.00 | 58 | 1439.4 |
| 20260502114950 | 65 | 144 | 3.0 | 7.0 | 0.00 | 0.00 | 0.00 | 57 | 1439.4 |
| 20260502114750 | 66 | 148 | 2.0 | 6.0 | 0.00 | 0.00 | 0.00 | 57 | 1439.8 |
| 20260502114550 | 66 | 136 | 2.0 | 6.0 | 0.00 | 0.00 | 0.00 | 57 | 1439.9 |
| 20260502114350 | 66 | 143 | 2.0 | 6.0 | 0.00 | 0.00 | 0.00 | 56 | 1440.1 |
| 20260502114150 | 66 | 150 | 2.0 | 6.0 | 0.00 | 0.00 | 0.00 | 57 | 1439.9 |
| 20260502113950 | 65 | 147 | 2.0 | 6.0 | 0.00 | 0.00 | 0.00 | 57 | 1439.5 |
| 20260502113750 | 65 | 144 | 2.0 | 7.0 | 0.00 | 0.00 | 0.00 | 57 | 1439.1 |
| 20260502113550 | 66 | 127 | 3.0 | 7.0 | 0.00 | 0.00 | 0.00 | 56 | 1439.6 |
| 20260502113350 | 66 | 130 | 2.0 | 7.0 | 0.00 | 0.00 | 0.00 | 55 | 1440.6 |
| 20260502113150 | 67 | 128 | 2.0 | 7.0 | 0.00 | 0.00 | 0.00 | 54 | 1441.6 |
| 20260502112950 | 68 | 150 | 2.0 | 7.0 | 0.00 | 0.00 | 0.00 | 54 | 1442.2 |
| 20260502112750 | 68 | 160 | 2.0 | 7.0 | 0.00 | 0.00 | 0.00 | 55 | 1442.4 |
| 20260502112550 | 67 | 158 | 2.0 | 8.0 | 0.00 | 0.00 | 0.00 | 55 | 1442.0 |
| 20260502112350 | 67 | 179 | 3.0 | 8.0 | 0.00 | 0.00 | 0.00 | 55 | 1441.7 |
| 20260502112150 | 67 | 167 | 2.0 | 8.0 | 0.00 | 0.00 | 0.00 | 56 | 1441.2 |
| 20260502111950 | 66 | 177 | 4.0 | 8.0 | 0.00 | 0.00 | 0.00 | 56 | 1440.5 |
| 20260502111750 | 66 | 182 | 3.0 | 8.0 | 0.00 | 0.00 | 0.00 | 56 | 1440.3 |
| 20260502111550 | 66 | 167 | 3.0 | 7.0 | 0.00 | 0.00 | 0.00 | 56 | 1440.5 |
| 20260502111350 | 66 | 191 | 3.0 | 8.0 | 0.00 | 0.00 | 0.00 | 56 | 1440.6 |
| 20260502111150 | 66 | 185 | 3.0 | 8.0 | 0.00 | 0.00 | 0.00 | 56 | 1440.8 |
| 20260502110950 | 66 | 170 | 2.0 | 10.0 | 0.00 | 0.00 | 0.00 | 56 | 1440.2 |
| 20260502110550 | 65 | 145 | 2.0 | 10.0 | 0.00 | 0.00 | 0.00 | 57 | 1439.1 |
| 20260502110350 | 65 | 134 | 2.0 | 10.0 | 0.00 | 0.00 | 0.00 | 57 | 1438.7 |
| 20260502110150 | 65 | 151 | 3.0 | 10.0 | 0.00 | 0.00 | 0.00 | 56 | 1438.4 |
| 20260502105950 | 65 | 134 | 3.0 | 9.0 | 0.00 | 0.00 | 0.00 | 56 | 1438.4 |
| 20260502105750 | 65 | 140 | 4.0 | 9.0 | 0.00 | 0.00 | 0.00 | 56 | 1438.7 |
| 20260502105550 | 65 | 132 | 2.0 | 7.0 | 0.00 | 0.00 | 0.00 | 56 | 1439.1 |
| 20260502105350 | 65 | 150 | 3.0 | 9.0 | 0.00 | 0.00 | 0.00 | 55 | 1439.3 |
| 20260502105150 | 65 | 143 | 3.0 | 9.0 | 0.00 | 0.00 | 0.00 | 55 | 1439.4 |
| 20260502104950 | 66 | 138 | 2.0 | 9.0 | 0.00 | 0.00 | 0.00 | 55 | 1439.6 |
| 20260502104751 | 66 | 154 | 3.0 | 9.0 | 0.00 | 0.00 | 0.00 | 54 | 1440.1 |
| 20260502104550 | 66 | 138 | 3.0 | 9.0 | 0.00 | 0.00 | 0.00 | 54 | 1440.8 |
| 20260502104350 | 67 | 144 | 2.0 | 9.0 | 0.00 | 0.00 | 0.00 | 54 | 1441.5 |
| 20260502104150 | 67 | 147 | 2.0 | 9.0 | 0.00 | 0.00 | 0.00 | 54 | 1441.3 |
| 20260502103950 | 67 | 150 | 3.0 | 9.0 | 0.00 | 0.00 | 0.00 | 54 | 1440.9 |
| 20260502103750 | 66 | 155 | 3.0 | 9.0 | 0.00 | 0.00 | 0.00 | 55 | 1440.5 |
| 20260502103550 | 66 | 161 | 4.0 | 7.0 | 0.00 | 0.00 | 0.00 | 55 | 1440.3 |
| 20260502103350 | 66 | 138 | 2.0 | 7.0 | 0.00 | 0.00 | 0.00 | 55 | 1439.8 |
| 20260502103150 | 66 | 145 | 3.0 | 8.0 | 0.00 | 0.00 | 0.00 | 56 | 1439.6 |
| 20260502102950 | 65 | 147 | 3.0 | 8.0 | 0.00 | 0.00 | 0.00 | 56 | 1439.2 |
| 20260502102750 | 65 | 155 | 3.0 | 11.0 | 0.00 | 0.00 | 0.00 | 57 | 1438.6 |
| 20260502102550 | 64 | 147 | 3.0 | 11.0 | 0.00 | 0.00 | 0.00 | 57 | 1437.9 |
| 20260502102350 | 64 | 149 | 3.0 | 11.0 | 0.00 | 0.00 | 0.00 | 57 | 1437.5 |
| 20260502102150 | 64 | 154 | 4.0 | 11.0 | 0.00 | 0.00 | 0.00 | 57 | 1437.1 |
| 20260502101950 | 64 | 169 | 5.0 | 10.0 | 0.00 | 0.00 | 0.00 | 57 | 1437.6 |
| 20260502101750 | 64 | 147 | 3.0 | 8.0 | 0.00 | 0.00 | 0.00 | 57 | 1438.1 |
| 20260502101550 | 65 | 162 | 3.0 | 7.0 | 0.00 | 0.00 | 0.00 | 56 | 1438.3 |
| 20260502101350 | 65 | 150 | 2.0 | 14.0 | 0.00 | 0.00 | 0.00 | 57 | 1438.8 |
| 20260502101150 | 65 | 143 | 2.0 | 14.0 | 0.00 | 0.00 | 0.00 | 57 | 1438.5 |
| 20260502100950 | 64 | 145 | 2.0 | 14.0 | 0.00 | 0.00 | 0.00 | 58 | 1438.0 |
| 20260502100750 | 64 | 160 | 4.0 | 14.0 | 0.00 | 0.00 | 0.00 | 57 | 1437.0 |
| 20260502100550 | 64 | 188 | 6.0 | 14.0 | 0.00 | 0.00 | 0.00 | 56 | 1437.8 |
| 20260502100350 | 65 | 174 | 4.0 | 12.0 | 0.00 | 0.00 | 0.00 | 56 | 1438.8 |
| 20260502100150 | 65 | 161 | 3.0 | 12.0 | 0.00 | 0.00 | 0.00 | 57 | 1438.7 |
| 20260502091350 | 63 | 167 | 3.0 | 11.0 | 0.00 | 0.00 | 0.00 | 60 | 1436.1 |
| 20260502091150 | 62 | 148 | 3.0 | 11.0 | 0.00 | 0.00 | 0.00 | 60 | 1435.6 |
| 20260502090950 | 62 | 145 | 3.0 | 11.0 | 0.00 | 0.00 | 0.00 | 60 | 1435.4 |
| 20260502090750 | 63 | 160 | 3.0 | 11.0 | 0.00 | 0.00 | 0.00 | 59 | 1435.9 |
| 20260502090550 | 63 | 132 | 3.0 | 7.0 | 0.00 | 0.00 | 0.00 | 59 | 1436.4 |
| 20260502090350 | 63 | 146 | 3.0 | 7.0 | 0.00 | 0.00 | 0.00 | 60 | 1436.6 |
| 20260502090150 | 63 | 152 | 3.0 | 7.0 | 0.00 | 0.00 | 0.00 | 60 | 1436.5 |
| 20260502071350 | 58 | 122 | 4.0 | 10.0 | 0.00 | 0.00 | 0.00 | 69 | 1429.8 |
| 20260502071150 | 58 | 126 | 5.0 | 10.0 | 0.00 | 0.00 | 0.00 | 69 | 1429.8 |
| 20260502070950 | 58 | 134 | 4.0 | 10.0 | 0.00 | 0.00 | 0.00 | 69 | 1430.0 |
| 20260502070750 | 58 | 124 | 4.0 | 9.0 | 0.00 | 0.00 | 0.00 | 69 | 1429.9 |
| 20260502070550 | 58 | 127 | 4.0 | 9.0 | 0.00 | 0.00 | 0.00 | 69 | 1429.9 |
| 20260502070350 | 58 | 122 | 4.0 | 9.0 | 0.00 | 0.00 | 0.00 | 69 | 1430.2 |
| 20260502070150 | 58 | 137 | 2.0 | 9.0 | 0.00 | 0.00 | 0.00 | 69 | 1430.0 |
| 20260502065950 | 58 | 130 | 4.0 | 9.0 | 0.00 | 0.00 | 0.00 | 69 | 1429.8 |
| 20260502065750 | 58 | 136 | 3.0 | 8.0 | 0.00 | 0.00 | 0.00 | 69 | 1429.7 |
| 20260502065550 | 58 | 128 | 3.0 | 8.0 | 0.00 | 0.00 | 0.00 | 69 | 1429.5 |
| 20260502065350 | 58 | 135 | 5.0 | 8.0 | 0.00 | 0.00 | 0.00 | 68 | 1429.7 |
| 20260502065150 | 58 | 135 | 3.0 | 8.0 | 0.00 | 0.00 | 0.00 | 69 | 1429.9 |
| 20260502064950 | 58 | 118 | 3.0 | 8.0 | 0.00 | 0.00 | 0.00 | 69 | 1429.9 |
| 20260502064750 | 58 | 125 | 3.0 | 9.0 | 0.00 | 0.00 | 0.00 | 69 | 1430.1 |
| 20260502064550 | 58 | 130 | 3.0 | 9.0 | 0.00 | 0.00 | 0.00 | 69 | 1430.0 |
| 20260502064350 | 58 | 130 | 3.0 | 9.0 | 0.00 | 0.00 | 0.00 | 69 | 1429.6 |
| 20260502064150 | 58 | 135 | 3.0 | 9.0 | 0.00 | 0.00 | 0.00 | 69 | 1429.4 |
| 20260502063950 | 58 | 134 | 4.0 | 9.0 | 0.00 | 0.00 | 0.00 | 69 | 1429.3 |
| 20260502063750 | 58 | 125 | 4.0 | 8.0 | 0.00 | 0.00 | 0.00 | 68 | 1429.5 |
| 20260502063550 | 58 | 127 | 3.0 | 8.0 | 0.00 | 0.00 | 0.00 | 68 | 1429.8 |
| 20260502063350 | 58 | 140 | 3.0 | 8.0 | 0.00 | 0.00 | 0.00 | 68 | 1430.1 |
| 20260502063150 | 58 | 138 | 2.0 | 8.0 | 0.00 | 0.00 | 0.00 | 69 | 1430.1 |
| 20260502062950 | 58 | 137 | 2.0 | 8.0 | 0.00 | 0.00 | 0.00 | 69 | 1429.8 |
| 20260502062750 | 58 | 143 | 3.0 | 8.0 | 0.00 | 0.00 | 0.00 | 69 | 1429.6 |
| 20260502062550 | 58 | 164 | 3.0 | 7.0 | 0.00 | 0.00 | 0.00 | 69 | 1429.4 |
| 20260502062350 | 58 | 136 | 3.0 | 7.0 | 0.00 | 0.00 | 0.00 | 69 | 1429.2 |
| 20260502062345 | 58 | 119 | 2.0 | 10.0 | 0.00 | 0.00 | 0.00 | 69 | 1429.1 |
| 20260502061950 | 58 | 137 | 3.0 | 10.0 | 0.00 | 0.00 | 0.00 | 69 | 1429.1 |
| 20260502061750 | 58 | 135 | 3.0 | 10.0 | 0.00 | 0.00 | 0.00 | 69 | 1429.1 |
| 20260502061550 | 58 | 121 | 3.0 | 10.0 | 0.00 | 0.00 | 0.00 | 69 | 1429.1 |
| 20260502061350 | 58 | 121 | 3.0 | 10.0 | 0.00 | 0.00 | 0.00 | 69 | 1429.1 |
| 20260502061150 | 58 | 136 | 3.0 | 8.0 | 0.00 | 0.00 | 0.00 | 69 | 1429.2 |
| 20260502060950 | 58 | 136 | 3.0 | 8.0 | 0.00 | 0.00 | 0.00 | 69 | 1429.1 |
| 20260502060750 | 58 | 131 | 2.0 | 6.0 | 0.00 | 0.00 | 0.00 | 69 | 1429.1 |
| 20260502060550 | 58 | 131 | 3.0 | 6.0 | 0.00 | 0.00 | 0.00 | 69 | 1429.1 |
| 20260502060350 | 57 | 148 | 3.0 | 6.0 | 0.00 | 0.00 | 0.00 | 69 | 1428.9 |
| 20260502060150 | 57 | 126 | 3.0 | 6.0 | 0.00 | 0.00 | 0.00 | 70 | 1428.9 |
| 20260502055950 | 57 | 135 | 2.0 | 7.0 | 0.00 | 0.00 | 0.00 | 70 | 1428.8 |
| 20260502055750 | 57 | 135 | 2.0 | 7.0 | 0.00 | 0.00 | 0.00 | 70 | 1428.8 |
| 20260502055550 | 57 | 133 | 2.0 | 7.0 | 0.00 | 0.00 | 0.00 | 71 | 1428.6 |
| 20260502055350 | 57 | 131 | 3.0 | 7.0 | 0.00 | 0.00 | 0.00 | 71 | 1428.5 |
| 20260502055150 | 57 | 128 | 2.0 | 8.0 | 0.00 | 0.00 | 0.00 | 72 | 1428.4 |
| 20260502054950 | 57 | 164 | 2.0 | 8.0 | 0.00 | 0.00 | 0.00 | 72 | 1428.1 |
| 20260502054750 | 57 | 131 | 3.0 | 8.0 | 0.00 | 0.00 | 0.00 | 72 | 1427.8 |
| 20260502054550 | 56 | 131 | 3.0 | 8.0 | 0.00 | 0.00 | 0.00 | 73 | 1427.6 |
| 20260502054545 | 56 | 131 | 3.0 | 8.0 | 0.00 | 0.00 | 0.00 | 73 | 1427.6 |
| 20260502054350 | 56 | 125 | 3.0 | 8.0 | 0.00 | 0.00 | 0.00 | 74 | 1427.2 |
| 20260502054345 | 56 | 125 | 3.0 | 8.0 | 0.00 | 0.00 | 0.00 | 74 | 1427.2 |
| 20260502054151 | 56 | 128 | 2.0 | 6.0 | 0.00 | 0.00 | 0.00 | 75 | 1426.8 |
| 20260502054145 | 56 | 128 | 2.0 | 6.0 | 0.00 | 0.00 | 0.00 | 75 | 1426.8 |
| 20260502053950 | 56 | 122 | 2.0 | 6.0 | 0.00 | 0.00 | 0.00 | 76 | 1426.4 |
| 20260502053945 | 56 | 122 | 2.0 | 6.0 | 0.00 | 0.00 | 0.00 | 76 | 1426.4 |
| 20260502053750 | 55 | 121 | 2.0 | 6.0 | 0.00 | 0.00 | 0.00 | 77 | 1425.9 |
| 20260502053550 | 55 | 115 | 2.0 | 4.0 | 0.00 | 0.00 | 0.00 | 78 | 1425.5 |
| 20260502053545 | 55 | 115 | 2.0 | 4.0 | 0.00 | 0.00 | 0.00 | 78 | 1425.5 |
| 20260502053350 | 55 | 121 | 1.0 | 4.0 | 0.00 | 0.00 | 0.00 | 79 | 1425.3 |
| 20260502053345 | 55 | 121 | 1.0 | 4.0 | 0.00 | 0.00 | 0.00 | 79 | 1425.3 |
| 20260502053150 | 54 | 112 | 1.0 | 4.0 | 0.00 | 0.00 | 0.00 | 79 | 1425.0 |
| 20260502053145 | 54 | 112 | 1.0 | 4.0 | 0.00 | 0.00 | 0.00 | 79 | 1425.0 |
| 20260502052950 | 54 | 114 | 2.0 | 4.0 | 0.00 | 0.00 | 0.00 | 79 | 1424.7 |
| 20260502052945 | 54 | 114 | 2.0 | 4.0 | 0.00 | 0.00 | 0.00 | 79 | 1424.7 |
| 20260502052750 | 54 | 107 | 1.0 | 4.0 | 0.00 | 0.00 | 0.00 | 80 | 1424.5 |
| 20260502052745 | 54 | 107 | 1.0 | 4.0 | 0.00 | 0.00 | 0.00 | 80 | 1424.5 |
| 20260502052550 | 54 | 106 | 1.0 | 4.0 | 0.00 | 0.00 | 0.00 | 81 | 1424.1 |
| 20260502052350 | 54 | 95 | 1.0 | 4.0 | 0.00 | 0.00 | 0.00 | 81 | 1423.9 |
| 20260502052345 | 54 | 95 | 1.0 | 4.0 | 0.00 | 0.00 | 0.00 | 81 | 1423.9 |
| 20260502052150 | 53 | 112 | 1.0 | 4.0 | 0.00 | 0.00 | 0.00 | 82 | 1423.6 |
| 20260502052145 | 53 | 112 | 1.0 | 4.0 | 0.00 | 0.00 | 0.00 | 82 | 1423.6 |
| 20260502051950 | 53 | 93 | 1.0 | 4.0 | 0.00 | 0.00 | 0.00 | 82 | 1423.3 |
| 20260502051750 | 53 | 105 | 1.0 | 4.0 | 0.00 | 0.00 | 0.00 | 83 | 1423.0 |
| 20260502051745 | 53 | 105 | 1.0 | 4.0 | 0.00 | 0.00 | 0.00 | 83 | 1423.0 |
| 20260502051550 | 53 | 114 | 1.0 | 3.0 | 0.00 | 0.00 | 0.00 | 83 | 1422.7 |
| 20260502051350 | 52 | 88 | 1.0 | 3.0 | 0.00 | 0.00 | 0.00 | 83 | 1422.4 |
| 20260502051345 | 52 | 88 | 1.0 | 3.0 | 0.00 | 0.00 | 0.00 | 83 | 1422.4 |
| 20260502051150 | 52 | 100 | 1.0 | 3.0 | 0.00 | 0.00 | 0.00 | 84 | 1422.0 |
| 20260502051145 | 52 | 100 | 1.0 | 3.0 | 0.00 | 0.00 | 0.00 | 84 | 1422.0 |
| 20260502050950 | 52 | 109 | 1.0 | 3.0 | 0.00 | 0.00 | 0.00 | 84 | 1421.7 |
| 20260502050750 | 52 | 122 | 1.0 | 3.0 | 0.00 | 0.00 | 0.00 | 84 | 1421.3 |
| 20260502050550 | 51 | 111 | 1.0 | 3.0 | 0.00 | 0.00 | 0.00 | 84 | 1420.9 |
| 20260502050350 | 51 | 107 | 1.0 | 3.0 | 0.00 | 0.00 | 0.00 | 85 | 1420.5 |
| 20260502050150 | 51 | 92 | 0.0 | 2.0 | 0.00 | 0.00 | 0.00 | 85 | 1420.1 |
| 20260502045950 | 50 | 83 | 1.0 | 2.0 | 0.00 | 0.00 | 0.00 | 85 | 1419.7 |
| 20260502045750 | 50 | 121 | 0.0 | 2.0 | 0.00 | 0.00 | 0.00 | 85 | 1419.2 |
| 20260502045550 | 50 | 78 | 0.0 | 2.0 | 0.00 | 0.00 | 0.00 | 85 | 1418.9 |
| 20260502045350 | 50 | 90 | 0.0 | 2.0 | 0.00 | 0.00 | 0.00 | 85 | 1418.5 |
| 20260502045150 | 49 | 77 | 1.0 | 2.0 | 0.00 | 0.00 | 0.00 | 85 | 1418.3 |
| 20260502044950 | 49 | 85 | 0.0 | 2.0 | 0.00 | 0.00 | 0.00 | 85 | 1418.0 |
| 20260502044750 | 49 | 86 | 0.0 | 2.0 | 0.00 | 0.00 | 0.00 | 85 | 1417.8 |
| 20260502044550 | 49 | 102 | 0.0 | 1.0 | 0.00 | 0.00 | 0.00 | 85 | 1417.5 |
| 20260502044350 | 49 | 92 | 0.0 | 2.0 | 0.00 | 0.00 | 0.00 | 85 | 1417.3 |
| 20260502044150 | 48 | 147 | 0.0 | 2.0 | 0.00 | 0.00 | 0.00 | 85 | 1417.2 |
| 20260502043950 | 48 | 118 | 0.0 | 3.0 | 0.00 | 0.00 | 0.00 | 85 | 1417.0 |
| 20260502043750 | 48 | 103 | 0.0 | 3.0 | 0.00 | 0.00 | 0.00 | 85 | 1416.9 |
| 20260502043550 | 48 | 111 | 0.0 | 3.0 | 0.00 | 0.00 | 0.00 | 85 | 1416.7 |
| 20260502043350 | 48 | 118 | 0.0 | 3.0 | 0.00 | 0.00 | 0.00 | 85 | 1416.6 |
| 20260502043150 | 48 | 114 | 1.0 | 3.0 | 0.00 | 0.00 | 0.00 | 85 | 1416.5 |
| 20260502042950 | 48 | 91 | 1.0 | 3.0 | 0.00 | 0.00 | 0.00 | 85 | 1416.3 |
| 20260502042945 | 48 | 91 | 1.0 | 3.0 | 0.00 | 0.00 | 0.00 | 85 | 1416.3 |
| 20260502042750 | 48 | 115 | 1.0 | 3.0 | 0.00 | 0.00 | 0.00 | 84 | 1416.1 |
| 20260502042550 | 47 | 102 | 1.0 | 3.0 | 0.00 | 0.00 | 0.00 | 84 | 1415.9 |
| 20260502042350 | 47 | 127 | 1.0 | 3.0 | 0.00 | 0.00 | 0.00 | 84 | 1415.6 |
| 20260502042150 | 47 | 102 | 1.0 | 3.0 | 0.00 | 0.00 | 0.00 | 84 | 1415.4 |
| 20260502042120 | 47 | 120 | 1.0 | 3.0 | 0.00 | 0.00 | 0.00 | 84 | 14.1 |
| 20260502041945 | 47 | 120 | 1.0 | 3.0 | 0.00 | 0.00 | 0.00 | 84 | 1415.3 |
| 20260502041750 | 47 | 119 | 0.0 | 3.0 | 0.00 | 0.00 | 0.00 | 84 | 1415.1 |
| 20260502041745 | 47 | 119 | 0.0 | 3.0 | 0.00 | 0.00 | 0.00 | 84 | 1415.1 |
| 20260502041550 | 47 | 113 | 1.0 | 3.0 | 0.00 | 0.00 | 0.00 | 84 | 1415.0 |
| 20260502041545 | 47 | 113 | 1.0 | 3.0 | 0.00 | 0.00 | 0.00 | 84 | 1415.0 |
| 20260502041350 | 47 | 102 | 1.0 | 3.0 | 0.00 | 0.00 | 0.00 | 84 | 1414.9 |
| 20260502041345 | 47 | 102 | 1.0 | 3.0 | 0.00 | 0.00 | 0.00 | 84 | 1414.9 |
| 20260502041150 | 47 | 111 | 1.0 | 3.0 | 0.00 | 0.00 | 0.00 | 84 | 1414.8 |
| 20260502041145 | 47 | 111 | 1.0 | 3.0 | 0.00 | 0.00 | 0.00 | 84 | 1414.8 |
| 20260502040950 | 47 | 108 | 1.0 | 3.0 | 0.00 | 0.00 | 0.00 | 84 | 1414.8 |
| 20260502040945 | 47 | 108 | 1.0 | 3.0 | 0.00 | 0.00 | 0.00 | 84 | 1414.8 |
| 20260502040752 | 46 | 104 | 1.0 | 3.0 | 0.00 | 0.00 | 0.00 | 84 | 1414.6 |
| 20260502040750 | 46 | 104 | 1.0 | 3.0 | 0.00 | 0.00 | 0.00 | 84 | 1414.6 |
| 20260502040550 | 46 | 100 | 1.0 | 3.0 | 0.00 | 0.00 | 0.00 | 84 | 1414.5 |
| 20260502040545 | 46 | 100 | 1.0 | 3.0 | 0.00 | 0.00 | 0.00 | 84 | 1414.5 |
| 20260502040350 | 46 | 100 | 1.0 | 3.0 | 0.00 | 0.00 | 0.00 | 84 | 1414.5 |
| 20260502040152 | 46 | 116 | 1.0 | 3.0 | 0.00 | 0.00 | 0.00 | 83 | 1414.4 |
| 20260502040150 | 46 | 116 | 1.0 | 3.0 | 0.00 | 0.00 | 0.00 | 83 | 1414.4 |
| 20260502035952 | 46 | 109 | 1.0 | 3.0 | 0.00 | 0.00 | 0.00 | 83 | 1414.4 |
| 20260502035950 | 46 | 109 | 1.0 | 3.0 | 0.00 | 0.00 | 0.00 | 83 | 1414.4 |
| 20260502035752 | 46 | 99 | 1.0 | 4.0 | 0.00 | 0.00 | 0.00 | 83 | 1414.4 |
| 20260502035750 | 46 | 99 | 1.0 | 4.0 | 0.00 | 0.00 | 0.00 | 83 | 1414.4 |
| 20260502035550 | 46 | 109 | 1.0 | 4.0 | 0.00 | 0.00 | 0.00 | 83 | 1414.5 |
| 20260502035350 | 46 | 97 | 1.0 | 4.0 | 0.00 | 0.00 | 0.00 | 83 | 1414.6 |
| 20260502035152 | 47 | 113 | 1.0 | 4.0 | 0.00 | 0.00 | 0.00 | 83 | 1414.7 |
| 20260502035150 | 47 | 113 | 1.0 | 4.0 | 0.00 | 0.00 | 0.00 | 83 | 1414.7 |
| 20260502034952 | 47 | 102 | 1.0 | 4.0 | 0.00 | 0.00 | 0.00 | 83 | 1414.8 |
| 20260502034950 | 47 | 102 | 1.0 | 4.0 | 0.00 | 0.00 | 0.00 | 83 | 1414.8 |
| 20260502034752 | 47 | 101 | 1.0 | 4.0 | 0.00 | 0.00 | 0.00 | 83 | 1415.1 |
| 20260502034750 | 47 | 101 | 1.0 | 4.0 | 0.00 | 0.00 | 0.00 | 83 | 1415.1 |
| 20260502034550 | 47 | 105 | 1.0 | 4.0 | 0.00 | 0.00 | 0.00 | 83 | 1415.3 |
| 20260502034352 | 47 | 103 | 1.0 | 4.0 | 0.00 | 0.00 | 0.00 | 83 | 1415.5 |
| 20260502034350 | 47 | 103 | 1.0 | 4.0 | 0.00 | 0.00 | 0.00 | 83 | 1415.5 |
| 20260502034152 | 47 | 114 | 1.0 | 4.0 | 0.00 | 0.00 | 0.00 | 84 | 1415.6 |
| 20260502034150 | 47 | 114 | 1.0 | 4.0 | 0.00 | 0.00 | 0.00 | 84 | 1415.6 |
| 20260502033952 | 47 | 104 | 2.0 | 4.0 | 0.00 | 0.00 | 0.00 | 84 | 1415.8 |
| 20260502033950 | 47 | 104 | 2.0 | 4.0 | 0.00 | 0.00 | 0.00 | 84 | 1415.8 |
| 20260502033750 | 48 | 108 | 1.0 | 4.0 | 0.00 | 0.00 | 0.00 | 84 | 1416.0 |
| 20260502033550 | 48 | 101 | 1.0 | 6.0 | 0.00 | 0.00 | 0.00 | 84 | 1416.1 |
| 20260502033350 | 48 | 104 | 1.0 | 6.0 | 0.00 | 0.00 | 0.00 | 84 | 1416.4 |
| 20260502033150 | 48 | 115 | 1.0 | 6.0 | 0.00 | 0.00 | 0.00 | 85 | 1416.7 |
| 20260502033145 | 48 | 115 | 1.0 | 6.0 | 0.00 | 0.00 | 0.00 | 85 | 1416.7 |
| 20260502032950 | 48 | 110 | 2.0 | 6.0 | 0.00 | 0.00 | 0.00 | 85 | 1416.8 |
| 20260502032945 | 48 | 110 | 2.0 | 6.0 | 0.00 | 0.00 | 0.00 | 85 | 1416.8 |
| 20260502032750 | 48 | 112 | 2.0 | 6.0 | 0.00 | 0.00 | 0.00 | 85 | 1416.8 |
| 20260502032745 | 48 | 112 | 2.0 | 6.0 | 0.00 | 0.00 | 0.00 | 85 | 1416.8 |
| 20260502032550 | 48 | 103 | 2.0 | 4.0 | 0.00 | 0.00 | 0.00 | 85 | 1416.7 |
| 20260502032356 | 48 | 107 | 2.0 | 4.0 | 0.00 | 0.00 | 0.00 | 86 | 1416.7 |
| 20260502032350 | 48 | 105 | 2.0 | 4.0 | 0.00 | 0.00 | 0.00 | 85 | 1416.7 |
| 20260502032345 | 48 | 105 | 2.0 | 4.0 | 0.00 | 0.00 | 0.00 | 85 | 1416.7 |
| 20260502032150 | 48 | 107 | 2.0 | 4.0 | 0.00 | 0.00 | 0.00 | 86 | 1416.7 |
| 20260502032145 | 48 | 107 | 2.0 | 4.0 | 0.00 | 0.00 | 0.00 | 86 | 1416.7 |
| 20260502032020 | 48 | 117 | 2.0 | 4.0 | 0.00 | 0.00 | 0.00 | 86 | 1416.6 |
| 20260502031950 | 48 | 117 | 2.0 | 4.0 | 0.00 | 0.00 | 0.00 | 86 | 1416.6 |
| 20260502031945 | 48 | 117 | 2.0 | 4.0 | 0.00 | 0.00 | 0.00 | 86 | 1416.6 |
| 20260502031750 | 48 | 119 | 1.0 | 4.0 | 0.00 | 0.00 | 0.00 | 86 | 1416.3 |
| 20260502031550 | 48 | 113 | 1.0 | 3.0 | 0.00 | 0.00 | 0.00 | 86 | 1416.3 |
| 20260502031545 | 48 | 113 | 1.0 | 3.0 | 0.00 | 0.00 | 0.00 | 86 | 1416.3 |
| 20260502031350 | 48 | 115 | 1.0 | 3.0 | 0.00 | 0.00 | 0.00 | 86 | 1416.2 |
| 20260502031150 | 47 | 114 | 1.0 | 3.0 | 0.00 | 0.00 | 0.00 | 86 | 1415.9 |
| 20260502031145 | 47 | 114 | 1.0 | 3.0 | 0.00 | 0.00 | 0.00 | 86 | 1415.9 |
| 20260502030950 | 47 | 110 | 1.0 | 3.0 | 0.00 | 0.00 | 0.00 | 86 | 1415.5 |
| 20260502030945 | 47 | 110 | 1.0 | 3.0 | 0.00 | 0.00 | 0.00 | 86 | 1415.5 |
| 20260502030750 | 47 | 121 | 1.0 | 3.0 | 0.00 | 0.00 | 0.00 | 86 | 1415.2 |
| 20260502030745 | 47 | 121 | 1.0 | 3.0 | 0.00 | 0.00 | 0.00 | 86 | 1415.2 |
| 20260502030550 | 47 | 119 | 0.0 | 3.0 | 0.00 | 0.00 | 0.00 | 86 | 1415.1 |
| 20260502030545 | 47 | 119 | 0.0 | 3.0 | 0.00 | 0.00 | 0.00 | 86 | 1415.1 |
| 20260502030350 | 47 | 114 | 1.0 | 3.0 | 0.00 | 0.00 | 0.00 | 86 | 1414.7 |
| 20260502030345 | 47 | 114 | 1.0 | 3.0 | 0.00 | 0.00 | 0.00 | 86 | 1414.7 |
| 20260502030150 | 47 | 100 | 1.0 | 2.0 | 0.00 | 0.00 | 0.00 | 86 | 1414.6 |
| 20260502030145 | 47 | 100 | 1.0 | 2.0 | 0.00 | 0.00 | 0.00 | 86 | 1414.6 |
| 20260502025950 | 47 | 102 | 1.0 | 2.0 | 0.00 | 0.00 | 0.00 | 85 | 1414.7 |
| 20260502025945 | 47 | 102 | 1.0 | 2.0 | 0.00 | 0.00 | 0.00 | 85 | 1414.7 |
| 20260502025750 | 47 | 96 | 1.0 | 2.0 | 0.00 | 0.00 | 0.00 | 85 | 1414.8 |
| 20260502025745 | 47 | 96 | 1.0 | 2.0 | 0.00 | 0.00 | 0.00 | 85 | 1414.8 |
| 20260502025550 | 47 | 102 | 1.0 | 2.0 | 0.00 | 0.00 | 0.00 | 85 | 1415.0 |
| 20260502025545 | 47 | 102 | 1.0 | 2.0 | 0.00 | 0.00 | 0.00 | 85 | 1415.0 |
| 20260502025350 | 47 | 96 | 1.0 | 2.0 | 0.00 | 0.00 | 0.00 | 85 | 1415.2 |
| 20260502025150 | 47 | 99 | 1.0 | 2.0 | 0.00 | 0.00 | 0.00 | 85 | 1415.5 |
| 20260502025145 | 47 | 99 | 1.0 | 2.0 | 0.00 | 0.00 | 0.00 | 85 | 1415.5 |
| 20260502024950 | 47 | 96 | 1.0 | 2.0 | 0.00 | 0.00 | 0.00 | 85 | 1415.8 |
| 20260502024945 | 47 | 96 | 1.0 | 2.0 | 0.00 | 0.00 | 0.00 | 85 | 1415.8 |
| 20260502024750 | 48 | 100 | 1.0 | 3.0 | 0.00 | 0.00 | 0.00 | 85 | 1416.0 |
| 20260502024550 | 48 | 102 | 1.0 | 3.0 | 0.00 | 0.00 | 0.00 | 85 | 1416.4 |
| 20260502024545 | 48 | 102 | 1.0 | 3.0 | 0.00 | 0.00 | 0.00 | 85 | 1416.4 |
| 20260502024350 | 48 | 114 | 1.0 | 3.0 | 0.00 | 0.00 | 0.00 | 85 | 1416.7 |
| 20260502024345 | 48 | 114 | 1.0 | 3.0 | 0.00 | 0.00 | 0.00 | 85 | 1416.7 |
| 20260502024150 | 48 | 100 | 1.0 | 4.0 | 0.00 | 0.00 | 0.00 | 85 | 1416.9 |
| 20260502024145 | 48 | 100 | 1.0 | 4.0 | 0.00 | 0.00 | 0.00 | 85 | 1416.9 |
| 20260502023950 | 48 | 112 | 1.0 | 4.0 | 0.00 | 0.00 | 0.00 | 84 | 1417.0 |
| 20260502023945 | 48 | 112 | 1.0 | 4.0 | 0.00 | 0.00 | 0.00 | 84 | 1417.0 |
| 20260502023750 | 48 | 125 | 1.0 | 4.0 | 0.00 | 0.00 | 0.00 | 84 | 1417.2 |
| 20260502023745 | 48 | 125 | 1.0 | 4.0 | 0.00 | 0.00 | 0.00 | 84 | 1417.2 |
| 20260502023550 | 49 | 124 | 2.0 | 4.0 | 0.00 | 0.00 | 0.00 | 84 | 1417.3 |
| 20260502023545 | 49 | 124 | 2.0 | 4.0 | 0.00 | 0.00 | 0.00 | 84 | 1417.3 |
| 20260502023350 | 49 | 113 | 2.0 | 4.0 | 0.00 | 0.00 | 0.00 | 84 | 1417.3 |
| 20260502023345 | 49 | 113 | 2.0 | 4.0 | 0.00 | 0.00 | 0.00 | 84 | 1417.3 |
| 20260502023150 | 49 | 108 | 1.0 | 3.0 | 0.00 | 0.00 | 0.00 | 84 | 1417.3 |
| 20260502023145 | 49 | 108 | 1.0 | 3.0 | 0.00 | 0.00 | 0.00 | 84 | 1417.3 |
| 20260502022950 | 48 | 122 | 1.0 | 3.0 | 0.00 | 0.00 | 0.00 | 83 | 1417.3 |
| 20260502022945 | 48 | 122 | 1.0 | 3.0 | 0.00 | 0.00 | 0.00 | 83 | 1417.3 |
| 20260502022750 | 49 | 113 | 1.0 | 3.0 | 0.00 | 0.00 | 0.00 | 83 | 1417.3 |
| 20260502022745 | 49 | 113 | 1.0 | 3.0 | 0.00 | 0.00 | 0.00 | 83 | 1417.3 |
| 20260502022550 | 49 | 116 | 1.0 | 3.0 | 0.00 | 0.00 | 0.00 | 83 | 1417.4 |
| 20260502022350 | 49 | 114 | 1.0 | 3.0 | 0.00 | 0.00 | 0.00 | 83 | 1417.6 |
| 20260502022345 | 49 | 114 | 1.0 | 3.0 | 0.00 | 0.00 | 0.00 | 83 | 1417.6 |
| 20260502022150 | 49 | 110 | 1.0 | 3.0 | 0.00 | 0.00 | 0.00 | 83 | 1417.7 |
| 20260502022145 | 49 | 110 | 1.0 | 3.0 | 0.00 | 0.00 | 0.00 | 83 | 1417.7 |
| 20260502021950 | 49 | 135 | 1.0 | 3.0 | 0.00 | 0.00 | 0.00 | 82 | 1417.8 |
| 20260502021945 | 49 | 135 | 1.0 | 3.0 | 0.00 | 0.00 | 0.00 | 82 | 1417.8 |
| 20260502021750 | 49 | 125 | 1.0 | 4.0 | 0.00 | 0.00 | 0.00 | 82 | 1417.8 |
| 20260502021550 | 49 | 119 | 1.0 | 4.0 | 0.00 | 0.00 | 0.00 | 82 | 1417.7 |
| 20260502021545 | 49 | 119 | 1.0 | 4.0 | 0.00 | 0.00 | 0.00 | 82 | 1417.7 |
| 20260502021350 | 49 | 121 | 1.0 | 4.0 | 0.00 | 0.00 | 0.00 | 82 | 1417.7 |
| 20260502021345 | 49 | 121 | 1.0 | 4.0 | 0.00 | 0.00 | 0.00 | 82 | 1417.7 |
| 20260502021150 | 49 | 114 | 2.0 | 4.0 | 0.00 | 0.00 | 0.00 | 81 | 1417.8 |
| 20260502021145 | 49 | 114 | 2.0 | 4.0 | 0.00 | 0.00 | 0.00 | 81 | 1417.8 |
| 20260502020950 | 49 | 121 | 1.0 | 4.0 | 0.00 | 0.00 | 0.00 | 81 | 1417.8 |
| 20260502020945 | 49 | 121 | 1.0 | 4.0 | 0.00 | 0.00 | 0.00 | 81 | 1417.8 |
| 20260502020750 | 49 | 113 | 1.0 | 4.0 | 0.00 | 0.00 | 0.00 | 81 | 1418.0 |
| 20260502020550 | 49 | 121 | 1.0 | 4.0 | 0.00 | 0.00 | 0.00 | 80 | 1418.1 |
| 20260502020545 | 49 | 121 | 1.0 | 4.0 | 0.00 | 0.00 | 0.00 | 80 | 1418.1 |
| 20260502020350 | 49 | 121 | 1.0 | 4.0 | 0.00 | 0.00 | 0.00 | 80 | 1418.0 |
| 20260502020346 | 49 | 121 | 1.0 | 4.0 | 0.00 | 0.00 | 0.00 | 80 | 1418.0 |
| 20260502020150 | 49 | 119 | 1.0 | 4.0 | 0.00 | 0.00 | 0.00 | 80 | 1417.9 |
| 20260502020145 | 49 | 119 | 1.0 | 4.0 | 0.00 | 0.00 | 0.00 | 80 | 1417.9 |
| 20260502015950 | 49 | 117 | 1.0 | 4.0 | 0.00 | 0.00 | 0.00 | 79 | 1417.9 |
| 20260502015945 | 49 | 117 | 1.0 | 4.0 | 0.00 | 0.00 | 0.00 | 79 | 1417.9 |
| 20260502015750 | 49 | 121 | 2.0 | 4.0 | 0.00 | 0.00 | 0.00 | 79 | 1417.8 |
| 20260502015745 | 49 | 121 | 2.0 | 4.0 | 0.00 | 0.00 | 0.00 | 79 | 1417.8 |
| 20260502015550 | 49 | 119 | 1.0 | 4.0 | 0.00 | 0.00 | 0.00 | 79 | 1417.8 |
| 20260502015545 | 49 | 119 | 1.0 | 4.0 | 0.00 | 0.00 | 0.00 | 79 | 1417.8 |
| 20260502015350 | 49 | 117 | 1.0 | 4.0 | 0.00 | 0.00 | 0.00 | 78 | 1417.8 |
| 20260502015150 | 49 | 117 | 1.0 | 2.0 | 0.00 | 0.00 | 0.00 | 78 | 1417.9 |
| 20260502015145 | 49 | 117 | 1.0 | 2.0 | 0.00 | 0.00 | 0.00 | 78 | 1417.9 |
| 20260502014950 | 49 | 114 | 1.0 | 3.0 | 0.00 | 0.00 | 0.00 | 77 | 1418.0 |
| 20260502014945 | 49 | 114 | 1.0 | 3.0 | 0.00 | 0.00 | 0.00 | 77 | 1418.0 |
| 20260502014750 | 49 | 128 | 0.0 | 4.0 | 0.00 | 0.00 | 0.00 | 77 | 1418.2 |
| 20260502014550 | 49 | 118 | 1.0 | 4.0 | 0.00 | 0.00 | 0.00 | 77 | 1418.4 |
| 20260502014545 | 49 | 118 | 1.0 | 4.0 | 0.00 | 0.00 | 0.00 | 77 | 1418.4 |
| 20260502014350 | 50 | 116 | 1.0 | 4.0 | 0.00 | 0.00 | 0.00 | 77 | 1418.6 |
| 20260502014345 | 50 | 116 | 1.0 | 4.0 | 0.00 | 0.00 | 0.00 | 77 | 1418.6 |
| 20260502014150 | 50 | 122 | 1.0 | 4.0 | 0.00 | 0.00 | 0.00 | 76 | 1418.8 |
| 20260502014145 | 50 | 122 | 1.0 | 4.0 | 0.00 | 0.00 | 0.00 | 76 | 1418.8 |
| 20260502013950 | 50 | 117 | 1.0 | 4.0 | 0.00 | 0.00 | 0.00 | 76 | 1418.8 |
| 20260502013945 | 50 | 117 | 1.0 | 4.0 | 0.00 | 0.00 | 0.00 | 76 | 1418.8 |
| 20260502013750 | 50 | 113 | 2.0 | 4.0 | 0.00 | 0.00 | 0.00 | 76 | 1418.8 |
| 20260502013745 | 50 | 113 | 2.0 | 4.0 | 0.00 | 0.00 | 0.00 | 76 | 1418.8 |
| 20260502013545 | 50 | 120 | 1.0 | 3.0 | 0.00 | 0.00 | 0.00 | 75 | 1418.9 |
| 20260502013350 | 50 | 116 | 1.0 | 4.0 | 0.00 | 0.00 | 0.00 | 75 | 1419.0 |
| 20260502013345 | 50 | 116 | 1.0 | 4.0 | 0.00 | 0.00 | 0.00 | 75 | 1419.0 |
| 20260502013150 | 50 | 133 | 1.0 | 4.0 | 0.00 | 0.00 | 0.00 | 75 | 1419.0 |
| 20260502012950 | 50 | 136 | 1.0 | 4.0 | 0.00 | 0.00 | 0.00 | 75 | 1419.0 |
| 20260502012945 | 50 | 136 | 1.0 | 4.0 | 0.00 | 0.00 | 0.00 | 75 | 1419.0 |
| 20260502012750 | 50 | 128 | 1.0 | 4.0 | 0.00 | 0.00 | 0.00 | 75 | 1418.9 |
| 20260502012745 | 50 | 128 | 1.0 | 4.0 | 0.00 | 0.00 | 0.00 | 75 | 1418.9 |
| 20260502012550 | 50 | 123 | 1.0 | 4.0 | 0.00 | 0.00 | 0.00 | 75 | 1418.8 |
| 20260502012545 | 50 | 123 | 1.0 | 4.0 | 0.00 | 0.00 | 0.00 | 75 | 1418.8 |
| 20260502012350 | 50 | 115 | 1.0 | 4.0 | 0.00 | 0.00 | 0.00 | 75 | 1418.8 |
| 20260502012345 | 50 | 115 | 1.0 | 4.0 | 0.00 | 0.00 | 0.00 | 75 | 1418.8 |
| 20260502012150 | 50 | 125 | 1.0 | 3.0 | 0.00 | 0.00 | 0.00 | 75 | 1418.8 |
| 20260502012145 | 50 | 125 | 1.0 | 3.0 | 0.00 | 0.00 | 0.00 | 75 | 1418.8 |
| 20260502011950 | 50 | 128 | 1.0 | 3.0 | 0.00 | 0.00 | 0.00 | 75 | 1418.8 |
| 20260502011945 | 50 | 128 | 1.0 | 3.0 | 0.00 | 0.00 | 0.00 | 75 | 1418.8 |
| 20260502011752 | 50 | 120 | 1.0 | 3.0 | 0.00 | 0.00 | 0.00 | 74 | 1418.6 |
| 20260502011750 | 50 | 120 | 1.0 | 3.0 | 0.00 | 0.00 | 0.00 | 74 | 1418.6 |
| 20260502011550 | 50 | 127 | 1.0 | 3.0 | 0.00 | 0.00 | 0.00 | 74 | 1418.6 |
| 20260502011545 | 50 | 127 | 1.0 | 3.0 | 0.00 | 0.00 | 0.00 | 74 | 1418.6 |
| 20260502011350 | 50 | 117 | 1.0 | 3.0 | 0.00 | 0.00 | 0.00 | 74 | 1418.6 |
| 20260502011150 | 50 | 120 | 1.0 | 3.0 | 0.00 | 0.00 | 0.00 | 74 | 1418.6 |
| 20260502010950 | 50 | 128 | 1.0 | 2.0 | 0.00 | 0.00 | 0.00 | 74 | 1418.6 |
| 20260502010945 | 50 | 128 | 1.0 | 2.0 | 0.00 | 0.00 | 0.00 | 74 | 1418.6 |
| 20260502010750 | 50 | 113 | 0.0 | 2.0 | 0.00 | 0.00 | 0.00 | 74 | 1418.6 |
| 20260502010745 | 50 | 113 | 0.0 | 2.0 | 0.00 | 0.00 | 0.00 | 74 | 1418.6 |
| 20260502010546 | 50 | 126 | 1.0 | 2.0 | 0.00 | 0.00 | 0.00 | 74 | 1418.6 |
| 20260502010350 | 50 | 120 | 1.0 | 3.0 | 0.00 | 0.00 | 0.00 | 74 | 1418.8 |
| 20260502010345 | 50 | 120 | 1.0 | 3.0 | 0.00 | 0.00 | 0.00 | 74 | 1418.8 |
| 20260502010150 | 50 | 134 | 0.0 | 4.0 | 0.00 | 0.00 | 0.00 | 73 | 1419.0 |
| 20260502010145 | 50 | 134 | 0.0 | 4.0 | 0.00 | 0.00 | 0.00 | 73 | 1419.0 |
| 20260502005950 | 50 | 117 | 1.0 | 4.0 | 0.00 | 0.00 | 0.00 | 74 | 1419.1 |
| 20260502005945 | 50 | 117 | 1.0 | 4.0 | 0.00 | 0.00 | 0.00 | 74 | 1419.1 |
| 20260502005750 | 50 | 121 | 1.0 | 4.0 | 0.00 | 0.00 | 0.00 | 74 | 1419.2 |
| 20260502005745 | 50 | 121 | 1.0 | 4.0 | 0.00 | 0.00 | 0.00 | 74 | 1419.2 |
| 20260502005550 | 50 | 115 | 1.0 | 4.0 | 0.00 | 0.00 | 0.00 | 74 | 1419.2 |
| 20260502005545 | 50 | 115 | 1.0 | 4.0 | 0.00 | 0.00 | 0.00 | 74 | 1419.2 |
| 20260502005351 | 50 | 122 | 1.0 | 4.0 | 0.00 | 0.00 | 0.00 | 74 | 1419.1 |
| 20260502005345 | 50 | 122 | 1.0 | 4.0 | 0.00 | 0.00 | 0.00 | 74 | 1419.1 |
| 20260502005151 | 50 | 117 | 1.0 | 3.0 | 0.00 | 0.00 | 0.00 | 73 | 1419.1 |
| 20260502005145 | 50 | 117 | 1.0 | 3.0 | 0.00 | 0.00 | 0.00 | 73 | 1419.1 |
| 20260502004950 | 50 | 123 | 1.0 | 3.0 | 0.00 | 0.00 | 0.00 | 73 | 1419.1 |
| 20260502004945 | 50 | 123 | 1.0 | 3.0 | 0.00 | 0.00 | 0.00 | 73 | 1419.1 |
| 20260502004750 | 50 | 116 | 1.0 | 3.0 | 0.00 | 0.00 | 0.00 | 73 | 1419.1 |
| 20260502004550 | 50 | 115 | 1.0 | 3.0 | 0.00 | 0.00 | 0.00 | 73 | 1419.0 |
| 20260502004545 | 50 | 115 | 1.0 | 3.0 | 0.00 | 0.00 | 0.00 | 73 | 1419.0 |
| 20260502004350 | 50 | 117 | 1.0 | 3.0 | 0.00 | 0.00 | 0.00 | 73 | 1418.9 |
| 20260502004345 | 50 | 117 | 1.0 | 3.0 | 0.00 | 0.00 | 0.00 | 73 | 1418.9 |
| 20260502004150 | 50 | 125 | 1.0 | 3.0 | 0.00 | 0.00 | 0.00 | 73 | 1419.0 |
| 20260502004145 | 50 | 125 | 1.0 | 3.0 | 0.00 | 0.00 | 0.00 | 73 | 1419.0 |
| 20260502003950 | 50 | 119 | 1.0 | 3.0 | 0.00 | 0.00 | 0.00 | 73 | 1419.0 |
| 20260502003945 | 50 | 119 | 1.0 | 3.0 | 0.00 | 0.00 | 0.00 | 73 | 1419.0 |
| 20260502003750 | 50 | 127 | 1.0 | 2.0 | 0.00 | 0.00 | 0.00 | 72 | 1419.0 |
| 20260502003745 | 50 | 127 | 1.0 | 2.0 | 0.00 | 0.00 | 0.00 | 72 | 1419.0 |
| 20260502003550 | 50 | 114 | 1.0 | 2.0 | 0.00 | 0.00 | 0.00 | 72 | 1419.2 |
| 20260502003545 | 50 | 114 | 1.0 | 2.0 | 0.00 | 0.00 | 0.00 | 72 | 1419.2 |
| 20260502003350 | 50 | 114 | 1.0 | 3.0 | 0.00 | 0.00 | 0.00 | 72 | 1419.4 |
| 20260502003345 | 50 | 114 | 1.0 | 3.0 | 0.00 | 0.00 | 0.00 | 72 | 1419.4 |
| 20260502003150 | 50 | 136 | 1.0 | 3.0 | 0.00 | 0.00 | 0.00 | 72 | 1419.5 |
| 20260502003145 | 50 | 136 | 1.0 | 3.0 | 0.00 | 0.00 | 0.00 | 72 | 1419.5 |
| 20260502002950 | 50 | 116 | 1.0 | 3.0 | 0.00 | 0.00 | 0.00 | 72 | 1419.6 |
| 20260502002945 | 50 | 116 | 1.0 | 3.0 | 0.00 | 0.00 | 0.00 | 72 | 1419.6 |
| 20260502002750 | 50 | 121 | 1.0 | 3.0 | 0.00 | 0.00 | 0.00 | 72 | 1419.6 |
| 20260502002745 | 50 | 121 | 1.0 | 3.0 | 0.00 | 0.00 | 0.00 | 72 | 1419.6 |
| 20260502002550 | 50 | 121 | 1.0 | 3.0 | 0.00 | 0.00 | 0.00 | 72 | 1419.6 |
| 20260502002545 | 50 | 121 | 1.0 | 3.0 | 0.00 | 0.00 | 0.00 | 72 | 1419.6 |
| 20260502002350 | 50 | 125 | 1.0 | 3.0 | 0.00 | 0.00 | 0.00 | 72 | 1419.6 |
| 20260502002345 | 50 | 125 | 1.0 | 3.0 | 0.00 | 0.00 | 0.00 | 72 | 1419.6 |
| 20260502002150 | 50 | 130 | 1.0 | 3.0 | 0.00 | 0.00 | 0.00 | 72 | 1419.7 |
| 20260502002145 | 50 | 130 | 1.0 | 3.0 | 0.00 | 0.00 | 0.00 | 72 | 1419.7 |
| 20260502001950 | 50 | 118 | 1.0 | 3.0 | 0.00 | 0.00 | 0.00 | 72 | 1419.8 |
| 20260502001945 | 50 | 118 | 1.0 | 3.0 | 0.00 | 0.00 | 0.00 | 72 | 1419.8 |
| 20260502001750 | 51 | 121 | 1.0 | 3.0 | 0.00 | 0.00 | 0.00 | 72 | 1419.9 |
| 20260502001550 | 50 | 117 | 2.0 | 3.0 | 0.00 | 0.00 | 0.00 | 73 | 1419.8 |
| 20260502001545 | 50 | 117 | 2.0 | 3.0 | 0.00 | 0.00 | 0.00 | 73 | 1419.8 |
| 20260502001350 | 50 | 119 | 1.0 | 3.0 | 0.00 | 0.00 | 0.00 | 73 | 1419.7 |
| 20260502001345 | 50 | 119 | 1.0 | 3.0 | 0.00 | 0.00 | 0.00 | 73 | 1419.7 |
| 20260502001150 | 50 | 117 | 1.0 | 3.0 | 0.00 | 0.00 | 0.00 | 73 | 1419.6 |
| 20260502001145 | 50 | 117 | 1.0 | 3.0 | 0.00 | 0.00 | 0.00 | 73 | 1419.6 |
| 20260502000950 | 50 | 128 | 1.0 | 3.0 | 0.00 | 0.00 | 0.00 | 73 | 1419.4 |
| 20260502000945 | 50 | 128 | 1.0 | 3.0 | 0.00 | 0.00 | 0.00 | 73 | 1419.4 |
| 20260502000750 | 50 | 120 | 1.0 | 3.0 | 0.00 | 0.00 | 0.00 | 73 | 1419.3 |
| 20260502000745 | 50 | 120 | 1.0 | 3.0 | 0.00 | 0.00 | 0.00 | 73 | 1419.3 |
| 20260502000550 | 50 | 118 | 1.0 | 2.0 | 0.00 | 0.00 | 0.00 | 73 | 1419.1 |
| 20260502000546 | 50 | 118 | 1.0 | 2.0 | 0.00 | 0.00 | 0.00 | 73 | 1419.1 |
| 20260502000350 | 50 | 116 | 1.0 | 2.0 | 0.00 | 0.00 | 0.00 | 73 | 1419.0 |
| 20260502000347 | 50 | 116 | 1.0 | 2.0 | 0.00 | 0.00 | 0.00 | 73 | 1419.0 |
| 20260502000150 | 50 | 142 | 0.0 | 2.0 | 0.00 | 0.00 | 0.00 | 73 | 1419.2 |
| 20260502000145 | 50 | 142 | 0.0 | 2.0 | 0.00 | 0.00 | 0.00 | 73 | 1419.2 |
| 20260501235950 | 50 | 116 | 1.0 | 2.0 | 0.00 | 0.00 | 0.00 | 73 | 1419.3 |
| 20260501235750 | 50 | 123 | 0.0 | 2.0 | 0.00 | 0.00 | 0.00 | 73 | 1419.3 |
| 20260501235745 | 50 | 123 | 0.0 | 2.0 | 0.00 | 0.00 | 0.00 | 73 | 1419.3 |
| 20260501235550 | 50 | 122 | 0.0 | 3.0 | 0.00 | 0.00 | 0.00 | 72 | 1419.6 |
| 20260501235350 | 50 | 114 | 1.0 | 3.0 | 0.00 | 0.00 | 0.00 | 72 | 1419.7 |
| 20260501235345 | 50 | 114 | 1.0 | 3.0 | 0.00 | 0.00 | 0.00 | 72 | 1419.7 |
| 20260501235150 | 50 | 119 | 1.0 | 3.0 | 0.00 | 0.00 | 0.00 | 72 | 1419.8 |
| 20260501235145 | 50 | 119 | 1.0 | 3.0 | 0.00 | 0.00 | 0.00 | 72 | 1419.8 |
| 20260501234950 | 51 | 113 | 1.0 | 3.0 | 0.00 | 0.00 | 0.00 | 72 | 1419.9 |
| 20260501234945 | 51 | 113 | 1.0 | 3.0 | 0.00 | 0.00 | 0.00 | 72 | 1419.9 |
| 20260501234750 | 50 | 119 | 1.0 | 3.0 | 0.00 | 0.00 | 0.00 | 72 | 1419.8 |
| 20260501234745 | 50 | 119 | 1.0 | 3.0 | 0.00 | 0.00 | 0.00 | 72 | 1419.8 |
| 20260501234550 | 50 | 116 | 1.0 | 3.0 | 0.00 | 0.00 | 0.00 | 72 | 1419.6 |
| 20260501234545 | 50 | 116 | 1.0 | 3.0 | 0.00 | 0.00 | 0.00 | 72 | 1419.6 |
| 20260501234350 | 50 | 131 | 1.0 | 2.0 | 0.00 | 0.00 | 0.00 | 72 | 1419.6 |
| 20260501234345 | 50 | 131 | 1.0 | 2.0 | 0.00 | 0.00 | 0.00 | 72 | 1419.6 |
| 20260501234150 | 50 | 129 | 0.0 | 4.0 | 0.00 | 0.00 | 0.00 | 72 | 1419.7 |
| 20260501234145 | 50 | 129 | 0.0 | 4.0 | 0.00 | 0.00 | 0.00 | 72 | 1419.7 |
| 20260501233950 | 51 | 133 | 0.0 | 4.0 | 0.00 | 0.00 | 0.00 | 72 | 1419.9 |
| 20260501233945 | 51 | 133 | 0.0 | 4.0 | 0.00 | 0.00 | 0.00 | 72 | 1419.9 |
| 20260501233750 | 51 | 133 | 1.0 | 4.0 | 0.00 | 0.00 | 0.00 | 71 | 1420.0 |
| 20260501233745 | 51 | 133 | 1.0 | 4.0 | 0.00 | 0.00 | 0.00 | 71 | 1420.0 |
| 20260501233550 | 51 | 146 | 1.0 | 4.0 | 0.00 | 0.00 | 0.00 | 71 | 1420.1 |
| 20260501233545 | 51 | 146 | 1.0 | 4.0 | 0.00 | 0.00 | 0.00 | 71 | 1420.1 |
| 20260501233350 | 51 | 145 | 1.0 | 4.0 | 0.00 | 0.00 | 0.00 | 72 | 1420.3 |
| 20260501233345 | 51 | 145 | 1.0 | 4.0 | 0.00 | 0.00 | 0.00 | 72 | 1420.3 |
| 20260501233150 | 51 | 122 | 1.0 | 4.0 | 0.00 | 0.00 | 0.00 | 72 | 1420.3 |
| 20260501233145 | 51 | 122 | 1.0 | 4.0 | 0.00 | 0.00 | 0.00 | 72 | 1420.3 |
| 20260501232950 | 51 | 121 | 1.0 | 4.0 | 0.00 | 0.00 | 0.00 | 72 | 1420.3 |
| 20260501232945 | 51 | 121 | 1.0 | 4.0 | 0.00 | 0.00 | 0.00 | 72 | 1420.3 |
| 20260501232750 | 51 | 132 | 1.0 | 5.0 | 0.00 | 0.00 | 0.00 | 72 | 1420.4 |
| 20260501232745 | 51 | 132 | 1.0 | 5.0 | 0.00 | 0.00 | 0.00 | 72 | 1420.4 |
| 20260501232550 | 51 | 129 | 1.0 | 5.0 | 0.00 | 0.00 | 0.00 | 72 | 1420.5 |
| 20260501232350 | 51 | 124 | 2.0 | 5.0 | 0.00 | 0.00 | 0.00 | 72 | 1420.5 |
| 20260501232345 | 51 | 124 | 2.0 | 5.0 | 0.00 | 0.00 | 0.00 | 72 | 1420.5 |
| 20260501232150 | 51 | 136 | 2.0 | 5.0 | 0.00 | 0.00 | 0.00 | 72 | 1420.5 |
| 20260501232145 | 51 | 136 | 2.0 | 5.0 | 0.00 | 0.00 | 0.00 | 72 | 1420.5 |
| 20260501231950 | 51 | 114 | 2.0 | 5.0 | 0.00 | 0.00 | 0.00 | 72 | 1420.4 |
| 20260501231750 | 51 | 126 | 2.0 | 4.0 | 0.00 | 0.00 | 0.00 | 72 | 1420.4 |
| 20260501231745 | 51 | 126 | 2.0 | 4.0 | 0.00 | 0.00 | 0.00 | 72 | 1420.4 |
| 20260501231550 | 51 | 111 | 1.0 | 4.0 | 0.00 | 0.00 | 0.00 | 72 | 1420.4 |
| 20260501231545 | 51 | 111 | 1.0 | 4.0 | 0.00 | 0.00 | 0.00 | 72 | 1420.4 |
| 20260501231350 | 51 | 119 | 2.0 | 4.0 | 0.00 | 0.00 | 0.00 | 72 | 1420.3 |
| 20260501231345 | 51 | 119 | 2.0 | 4.0 | 0.00 | 0.00 | 0.00 | 72 | 1420.3 |
| 20260501231150 | 51 | 118 | 2.0 | 4.0 | 0.00 | 0.00 | 0.00 | 72 | 1420.3 |
| 20260501230950 | 51 | 121 | 1.0 | 3.0 | 0.00 | 0.00 | 0.00 | 72 | 1420.3 |
| 20260501230945 | 51 | 121 | 1.0 | 3.0 | 0.00 | 0.00 | 0.00 | 72 | 1420.3 |
| 20260501230750 | 51 | 114 | 1.0 | 4.0 | 0.00 | 0.00 | 0.00 | 72 | 1420.4 |
| 20260501230745 | 51 | 114 | 1.0 | 4.0 | 0.00 | 0.00 | 0.00 | 72 | 1420.4 |
| 20260501230550 | 51 | 114 | 1.0 | 4.0 | 0.00 | 0.00 | 0.00 | 72 | 1420.5 |
| 20260501230545 | 51 | 114 | 1.0 | 4.0 | 0.00 | 0.00 | 0.00 | 72 | 1420.5 |
| 20260501230350 | 51 | 119 | 1.0 | 4.0 | 0.00 | 0.00 | 0.00 | 72 | 1420.5 |
| 20260501230150 | 51 | 130 | 1.0 | 4.0 | 0.00 | 0.00 | 0.00 | 72 | 1420.7 |
| 20260501230145 | 51 | 130 | 1.0 | 4.0 | 0.00 | 0.00 | 0.00 | 72 | 1420.7 |
| 20260501225950 | 51 | 133 | 2.0 | 4.0 | 0.00 | 0.00 | 0.00 | 72 | 1420.8 |
| 20260501225945 | 51 | 133 | 2.0 | 4.0 | 0.00 | 0.00 | 0.00 | 72 | 1420.8 |
| 20260501225750 | 51 | 127 | 1.0 | 4.0 | 0.00 | 0.00 | 0.00 | 72 | 1420.8 |
| 20260501225745 | 51 | 127 | 1.0 | 4.0 | 0.00 | 0.00 | 0.00 | 72 | 1420.8 |
| 20260501225550 | 51 | 130 | 1.0 | 4.0 | 0.00 | 0.00 | 0.00 | 72 | 1420.9 |
| 20260501225545 | 51 | 130 | 1.0 | 4.0 | 0.00 | 0.00 | 0.00 | 72 | 1420.9 |
| 20260501225350 | 51 | 127 | 2.0 | 5.0 | 0.00 | 0.00 | 0.00 | 72 | 1420.9 |
| 20260501225345 | 51 | 127 | 2.0 | 5.0 | 0.00 | 0.00 | 0.00 | 72 | 1420.9 |
| 20260501225150 | 51 | 126 | 2.0 | 5.0 | 0.00 | 0.00 | 0.00 | 72 | 1420.9 |
| 20260501225145 | 51 | 126 | 2.0 | 5.0 | 0.00 | 0.00 | 0.00 | 72 | 1420.9 |
| 20260501224950 | 51 | 114 | 2.0 | 5.0 | 0.00 | 0.00 | 0.00 | 72 | 1420.9 |
| 20260501224751 | 51 | 127 | 2.0 | 5.0 | 0.00 | 0.00 | 0.00 | 72 | 1420.8 |
| 20260501224745 | 51 | 127 | 2.0 | 5.0 | 0.00 | 0.00 | 0.00 | 72 | 1420.8 |
| 20260501224550 | 51 | 114 | 2.0 | 5.0 | 0.00 | 0.00 | 0.00 | 72 | 1420.8 |
| 20260501224350 | 51 | 129 | 1.0 | 5.0 | 0.00 | 0.00 | 0.00 | 73 | 1420.8 |
| 20260501224345 | 51 | 129 | 1.0 | 5.0 | 0.00 | 0.00 | 0.00 | 73 | 1420.8 |
| 20260501224150 | 51 | 147 | 1.0 | 5.0 | 0.00 | 0.00 | 0.00 | 73 | 1420.9 |
| 20260501224145 | 51 | 147 | 1.0 | 5.0 | 0.00 | 0.00 | 0.00 | 73 | 1420.9 |
| 20260501223950 | 51 | 131 | 2.0 | 5.0 | 0.00 | 0.00 | 0.00 | 73 | 1420.9 |
| 20260501223945 | 51 | 131 | 2.0 | 5.0 | 0.00 | 0.00 | 0.00 | 73 | 1420.9 |
| 20260501223750 | 51 | 124 | 1.0 | 3.0 | 0.00 | 0.00 | 0.00 | 73 | 1420.8 |
| 20260501223745 | 51 | 124 | 1.0 | 3.0 | 0.00 | 0.00 | 0.00 | 73 | 1420.8 |
| 20260501223550 | 51 | 124 | 1.0 | 5.0 | 0.00 | 0.00 | 0.00 | 73 | 1420.8 |
| 20260501223545 | 51 | 124 | 1.0 | 5.0 | 0.00 | 0.00 | 0.00 | 73 | 1420.8 |
| 20260501223350 | 51 | 133 | 1.0 | 5.0 | 0.00 | 0.00 | 0.00 | 73 | 1420.8 |
| 20260501223345 | 51 | 133 | 1.0 | 5.0 | 0.00 | 0.00 | 0.00 | 73 | 1420.8 |
| 20260501223150 | 51 | 126 | 1.0 | 5.0 | 0.00 | 0.00 | 0.00 | 73 | 1420.9 |
| 20260501223145 | 51 | 126 | 1.0 | 5.0 | 0.00 | 0.00 | 0.00 | 73 | 1420.9 |
| 20260501222950 | 51 | 133 | 1.0 | 5.0 | 0.00 | 0.00 | 0.00 | 73 | 1420.9 |
| 20260501222945 | 51 | 133 | 1.0 | 5.0 | 0.00 | 0.00 | 0.00 | 73 | 1420.9 |
| 20260501222750 | 51 | 125 | 2.0 | 5.0 | 0.00 | 0.00 | 0.00 | 73 | 1420.9 |
| 20260501222745 | 51 | 125 | 2.0 | 5.0 | 0.00 | 0.00 | 0.00 | 73 | 1420.9 |
| 20260501222550 | 51 | 137 | 2.0 | 5.0 | 0.00 | 0.00 | 0.00 | 73 | 1420.9 |
| 20260501222545 | 51 | 137 | 2.0 | 5.0 | 0.00 | 0.00 | 0.00 | 73 | 1420.9 |
| 20260501222350 | 51 | 139 | 2.0 | 5.0 | 0.00 | 0.00 | 0.00 | 73 | 1420.9 |
| 20260501222345 | 51 | 139 | 2.0 | 5.0 | 0.00 | 0.00 | 0.00 | 73 | 1420.9 |
| 20260501222150 | 51 | 136 | 1.0 | 4.0 | 0.00 | 0.00 | 0.00 | 73 | 1421.0 |
| 20260501222145 | 51 | 136 | 1.0 | 4.0 | 0.00 | 0.00 | 0.00 | 73 | 1421.0 |
| 20260501221950 | 51 | 138 | 2.0 | 4.0 | 0.00 | 0.00 | 0.00 | 73 | 1421.0 |
| 20260501221945 | 51 | 138 | 2.0 | 4.0 | 0.00 | 0.00 | 0.00 | 73 | 1421.0 |
| 20260501221750 | 51 | 130 | 1.0 | 4.0 | 0.00 | 0.00 | 0.00 | 73 | 1421.1 |
| 20260501221745 | 51 | 130 | 1.0 | 4.0 | 0.00 | 0.00 | 0.00 | 73 | 1421.1 |
| 20260501221550 | 51 | 125 | 1.0 | 4.0 | 0.00 | 0.00 | 0.00 | 72 | 1421.2 |
| 20260501221545 | 51 | 125 | 1.0 | 4.0 | 0.00 | 0.00 | 0.00 | 72 | 1421.2 |
| 20260501221350 | 52 | 125 | 2.0 | 5.0 | 0.00 | 0.00 | 0.00 | 73 | 1421.2 |
| 20260501221345 | 52 | 125 | 2.0 | 5.0 | 0.00 | 0.00 | 0.00 | 73 | 1421.2 |
| 20260501221150 | 52 | 119 | 1.0 | 5.0 | 0.00 | 0.00 | 0.00 | 73 | 1421.3 |
| 20260501221145 | 52 | 119 | 1.0 | 5.0 | 0.00 | 0.00 | 0.00 | 73 | 1421.3 |
| 20260501220950 | 52 | 129 | 1.0 | 5.0 | 0.00 | 0.00 | 0.00 | 73 | 1421.4 |
| 20260501220945 | 52 | 129 | 1.0 | 5.0 | 0.00 | 0.00 | 0.00 | 73 | 1421.4 |
| 20260501220750 | 52 | 119 | 2.0 | 5.0 | 0.00 | 0.00 | 0.00 | 73 | 1421.5 |
| 20260501220746 | 52 | 119 | 2.0 | 5.0 | 0.00 | 0.00 | 0.00 | 73 | 1421.5 |
| 20260501220550 | 52 | 132 | 2.0 | 5.0 | 0.00 | 0.00 | 0.00 | 73 | 1421.5 |
| 20260501220545 | 52 | 132 | 2.0 | 5.0 | 0.00 | 0.00 | 0.00 | 73 | 1421.5 |
| 20260501220350 | 52 | 127 | 2.0 | 4.0 | 0.00 | 0.00 | 0.00 | 73 | 1421.4 |
| 20260501220345 | 52 | 127 | 2.0 | 4.0 | 0.00 | 0.00 | 0.00 | 73 | 1421.4 |
| 20260501220150 | 52 | 128 | 2.0 | 5.0 | 0.00 | 0.00 | 0.00 | 73 | 1421.3 |
| 20260501220145 | 52 | 128 | 2.0 | 5.0 | 0.00 | 0.00 | 0.00 | 73 | 1421.3 |
| 20260501215950 | 52 | 125 | 2.0 | 5.0 | 0.00 | 0.00 | 0.00 | 74 | 1421.3 |
| 20260501215945 | 52 | 125 | 2.0 | 5.0 | 0.00 | 0.00 | 0.00 | 74 | 1421.3 |
| 20260501215750 | 51 | 134 | 2.0 | 5.0 | 0.00 | 0.00 | 0.00 | 75 | 1421.0 |
| 20260501215745 | 51 | 134 | 2.0 | 5.0 | 0.00 | 0.00 | 0.00 | 75 | 1421.0 |
| 20260501215550 | 51 | 132 | 2.0 | 5.0 | 0.00 | 0.00 | 0.00 | 76 | 1420.7 |
| 20260501215545 | 51 | 132 | 2.0 | 5.0 | 0.00 | 0.00 | 0.00 | 76 | 1420.7 |
| 20260501215350 | 51 | 138 | 2.0 | 4.0 | 0.00 | 0.00 | 0.00 | 76 | 1420.5 |
| 20260501215150 | 51 | 124 | 2.0 | 4.0 | 0.00 | 0.00 | 0.00 | 77 | 1420.5 |
| 20260501215145 | 51 | 124 | 2.0 | 4.0 | 0.00 | 0.00 | 0.00 | 77 | 1420.5 |
| 20260501214950 | 51 | 115 | 2.0 | 4.0 | 0.00 | 0.00 | 0.00 | 77 | 1420.4 |
| 20260501214945 | 51 | 115 | 2.0 | 4.0 | 0.00 | 0.00 | 0.00 | 77 | 1420.4 |
| 20260501214750 | 51 | 117 | 2.0 | 5.0 | 0.00 | 0.00 | 0.00 | 77 | 1420.2 |
| 20260501214745 | 51 | 117 | 2.0 | 5.0 | 0.00 | 0.00 | 0.00 | 77 | 1420.2 |
| 20260501214551 | 51 | 121 | 2.0 | 5.0 | 0.00 | 0.00 | 0.00 | 77 | 1420.2 |
| 20260501214545 | 51 | 121 | 2.0 | 5.0 | 0.00 | 0.00 | 0.00 | 77 | 1420.2 |
| 20260501214350 | 51 | 117 | 1.0 | 5.0 | 0.00 | 0.00 | 0.00 | 77 | 1420.2 |
| 20260501214345 | 51 | 117 | 1.0 | 5.0 | 0.00 | 0.00 | 0.00 | 77 | 1420.2 |
| 20260501214150 | 51 | 116 | 2.0 | 5.0 | 0.00 | 0.00 | 0.00 | 77 | 1420.2 |
| 20260501214145 | 51 | 116 | 2.0 | 5.0 | 0.00 | 0.00 | 0.00 | 77 | 1420.2 |
| 20260501213950 | 51 | 117 | 1.0 | 5.0 | 0.00 | 0.00 | 0.00 | 78 | 1420.1 |
| 20260501213945 | 51 | 117 | 1.0 | 5.0 | 0.00 | 0.00 | 0.00 | 78 | 1420.1 |
| 20260501213750 | 51 | 120 | 1.0 | 4.0 | 0.00 | 0.00 | 0.00 | 78 | 1420.1 |
| 20260501213745 | 51 | 120 | 1.0 | 4.0 | 0.00 | 0.00 | 0.00 | 78 | 1420.1 |
| 20260501213550 | 51 | 127 | 1.0 | 4.0 | 0.00 | 0.00 | 0.00 | 78 | 1420.1 |
| 20260501213545 | 51 | 127 | 1.0 | 4.0 | 0.00 | 0.00 | 0.00 | 78 | 1420.1 |
| 20260501213350 | 51 | 121 | 1.0 | 4.0 | 0.00 | 0.00 | 0.00 | 78 | 1420.1 |
| 20260501213345 | 51 | 121 | 1.0 | 4.0 | 0.00 | 0.00 | 0.00 | 78 | 1420.1 |
| 20260501213151 | 51 | 115 | 1.0 | 3.0 | 0.00 | 0.00 | 0.00 | 78 | 1420.2 |
| 20260501213145 | 51 | 115 | 1.0 | 3.0 | 0.00 | 0.00 | 0.00 | 78 | 1420.2 |
| 20260501212950 | 51 | 118 | 1.0 | 3.0 | 0.00 | 0.00 | 0.00 | 78 | 1420.2 |
| 20260501212945 | 51 | 118 | 1.0 | 3.0 | 0.00 | 0.00 | 0.00 | 78 | 1420.2 |
| 20260501212750 | 51 | 121 | 1.0 | 4.0 | 0.00 | 0.00 | 0.00 | 77 | 1420.3 |
| 20260501212745 | 51 | 121 | 1.0 | 4.0 | 0.00 | 0.00 | 0.00 | 77 | 1420.3 |
| 20260501212550 | 51 | 132 | 1.0 | 4.0 | 0.00 | 0.00 | 0.00 | 77 | 1420.4 |
| 20260501212545 | 51 | 132 | 1.0 | 4.0 | 0.00 | 0.00 | 0.00 | 77 | 1420.4 |
| 20260501212350 | 51 | 119 | 1.0 | 4.0 | 0.00 | 0.00 | 0.00 | 78 | 1420.5 |
| 20260501212345 | 51 | 119 | 1.0 | 4.0 | 0.00 | 0.00 | 0.00 | 78 | 1420.5 |
| 20260501212150 | 51 | 128 | 1.0 | 4.0 | 0.00 | 0.00 | 0.00 | 78 | 1420.5 |
| 20260501212145 | 51 | 128 | 1.0 | 4.0 | 0.00 | 0.00 | 0.00 | 78 | 1420.5 |
| 20260501211950 | 51 | 117 | 1.0 | 4.0 | 0.00 | 0.00 | 0.00 | 78 | 1420.5 |
| 20260501211945 | 51 | 117 | 1.0 | 4.0 | 0.00 | 0.00 | 0.00 | 78 | 1420.5 |
| 20260501211750 | 51 | 112 | 1.0 | 4.0 | 0.00 | 0.00 | 0.00 | 78 | 1420.6 |
| 20260501211745 | 51 | 112 | 1.0 | 4.0 | 0.00 | 0.00 | 0.00 | 78 | 1420.6 |
| 20260501211550 | 51 | 136 | 1.0 | 4.0 | 0.00 | 0.00 | 0.00 | 78 | 1420.6 |
| 20260501211545 | 51 | 136 | 1.0 | 4.0 | 0.00 | 0.00 | 0.00 | 78 | 1420.6 |
| 20260501211350 | 51 | 124 | 2.0 | 4.0 | 0.00 | 0.00 | 0.00 | 77 | 1420.6 |
| 20260501211345 | 51 | 124 | 2.0 | 4.0 | 0.00 | 0.00 | 0.00 | 77 | 1420.6 |
| 20260501211150 | 51 | 119 | 1.0 | 4.0 | 0.00 | 0.00 | 0.00 | 77 | 1420.7 |
| 20260501210950 | 51 | 129 | 2.0 | 4.0 | 0.00 | 0.00 | 0.00 | 77 | 1420.7 |
| 20260501210750 | 51 | 121 | 2.0 | 5.0 | 0.00 | 0.00 | 0.00 | 77 | 1420.8 |
| 20260501210550 | 51 | 119 | 2.0 | 5.0 | 0.00 | 0.00 | 0.00 | 77 | 1420.9 |
| 20260501210350 | 51 | 129 | 2.0 | 5.0 | 0.00 | 0.00 | 0.00 | 77 | 1420.8 |
| 20260501210151 | 51 | 116 | 2.0 | 5.0 | 0.00 | 0.00 | 0.00 | 77 | 1420.8 |
| 20260501205950 | 51 | 120 | 1.0 | 5.0 | 0.00 | 0.00 | 0.00 | 76 | 1420.7 |
| 20260501205750 | 51 | 145 | 1.0 | 5.0 | 0.00 | 0.00 | 0.00 | 76 | 1420.7 |
| 20260501205550 | 51 | 140 | 1.0 | 5.0 | 0.00 | 0.00 | 0.00 | 76 | 1420.8 |
| 20260501205350 | 51 | 137 | 1.0 | 5.0 | 0.00 | 0.00 | 0.00 | 76 | 1420.8 |
| 20260501205150 | 51 | 139 | 1.0 | 4.0 | 0.00 | 0.00 | 0.00 | 75 | 1420.8 |
| 20260501204750 | 51 | 121 | 2.0 | 4.0 | 0.00 | 0.00 | 0.00 | 75 | 1421.0 |
| 20260501204550 | 51 | 138 | 1.0 | 4.0 | 0.00 | 0.00 | 0.00 | 75 | 1420.9 |
| 20260501204351 | 51 | 141 | 1.0 | 4.0 | 0.00 | 0.00 | 0.00 | 75 | 1421.0 |
| 20260501204150 | 51 | 133 | 2.0 | 4.0 | 0.00 | 0.00 | 0.00 | 75 | 1421.0 |
| 20260501203950 | 51 | 130 | 2.0 | 4.0 | 0.00 | 0.00 | 0.00 | 75 | 1421.0 |
| 20260501203750 | 51 | 119 | 2.0 | 4.0 | 0.00 | 0.00 | 0.00 | 75 | 1421.0 |
| 20260501203550 | 51 | 128 | 2.0 | 6.0 | 0.00 | 0.00 | 0.00 | 74 | 1421.0 |
| 20260501203350 | 51 | 122 | 1.0 | 6.0 | 0.00 | 0.00 | 0.00 | 74 | 1421.1 |
| 20260501203151 | 51 | 126 | 2.0 | 6.0 | 0.00 | 0.00 | 0.00 | 74 | 1421.2 |
| 20260501202950 | 52 | 119 | 2.0 | 6.0 | 0.00 | 0.00 | 0.00 | 74 | 1421.2 |
| 20260501202750 | 52 | 120 | 2.0 | 6.0 | 0.00 | 0.00 | 0.00 | 74 | 1421.2 |
| 20260501202550 | 51 | 125 | 2.0 | 4.0 | 0.00 | 0.00 | 0.00 | 73 | 1421.1 |
| 20260501202350 | 51 | 118 | 2.0 | 4.0 | 0.00 | 0.00 | 0.00 | 73 | 1421.1 |
| 20260501202150 | 51 | 114 | 2.0 | 4.0 | 0.00 | 0.00 | 0.00 | 73 | 1421.2 |
| 20260501202145 | 52 | 127 | 1.0 | 4.0 | 0.00 | 0.00 | 0.00 | 73 | 1421.2 |
| 20260501201750 | 52 | 122 | 2.0 | 4.0 | 0.00 | 0.00 | 0.00 | 72 | 1421.2 |
| 20260501201550 | 52 | 147 | 1.0 | 4.0 | 0.00 | 0.00 | 0.00 | 72 | 1421.3 |
| 20260501201350 | 52 | 127 | 2.0 | 4.0 | 0.00 | 0.00 | 0.00 | 72 | 1421.4 |
| 20260501201150 | 52 | 124 | 1.0 | 4.0 | 0.00 | 0.00 | 0.00 | 72 | 1421.4 |
| 20260501200950 | 52 | 122 | 1.0 | 4.0 | 0.00 | 0.00 | 0.00 | 71 | 1421.5 |
| 20260501200750 | 52 | 124 | 1.0 | 4.0 | 0.00 | 0.00 | 0.00 | 71 | 1421.5 |
| 20260501200550 | 52 | 125 | 1.0 | 4.0 | 0.00 | 0.00 | 0.00 | 71 | 1421.6 |
| 20260501200350 | 52 | 148 | 1.0 | 4.0 | 0.00 | 0.00 | 0.00 | 71 | 1421.6 |
| 20260501200150 | 52 | 124 | 1.0 | 4.0 | 0.00 | 0.00 | 0.00 | 70 | 1421.7 |
| 20260501195950 | 52 | 122 | 1.0 | 4.0 | 0.00 | 0.00 | 0.00 | 70 | 1421.7 |
| 20260501195750 | 52 | 136 | 1.0 | 4.0 | 0.00 | 0.00 | 0.00 | 70 | 1421.8 |
| 20260501195550 | 52 | 131 | 1.0 | 4.0 | 0.00 | 0.00 | 0.00 | 70 | 1421.9 |
| 20260501195350 | 52 | 128 | 1.0 | 4.0 | 0.00 | 0.00 | 0.00 | 70 | 1422.0 |
| 20260501195150 | 52 | 156 | 1.0 | 5.0 | 0.00 | 0.00 | 0.00 | 69 | 1422.2 |
| 20260501194950 | 52 | 172 | 1.0 | 5.0 | 0.00 | 0.00 | 0.00 | 69 | 1422.4 |
| 20260501194750 | 53 | 141 | 1.0 | 5.0 | 0.00 | 0.00 | 0.00 | 69 | 1422.5 |
| 20260501194550 | 53 | 125 | 1.0 | 5.0 | 0.00 | 0.00 | 0.00 | 69 | 1422.7 |
| 20260501194350 | 53 | 132 | 2.0 | 5.0 | 0.00 | 0.00 | 0.00 | 69 | 1422.7 |
| 20260501194151 | 53 | 128 | 2.0 | 4.0 | 0.00 | 0.00 | 0.00 | 68 | 1422.8 |
| 20260501193950 | 53 | 145 | 1.0 | 6.0 | 0.00 | 0.00 | 0.00 | 68 | 1422.9 |
| 20260501193750 | 53 | 134 | 2.0 | 6.0 | 0.00 | 0.00 | 0.00 | 68 | 1423.0 |
| 20260501193550 | 53 | 134 | 2.0 | 6.0 | 0.00 | 0.00 | 0.00 | 68 | 1423.1 |
| 20260501193350 | 53 | 140 | 2.0 | 6.0 | 0.00 | 0.00 | 0.00 | 68 | 1423.1 |
| 20260501193150 | 53 | 141 | 2.0 | 7.0 | 0.00 | 0.00 | 0.00 | 68 | 1423.2 |
| 20260501192950 | 53 | 136 | 1.0 | 7.0 | 0.00 | 0.00 | 0.00 | 67 | 1423.3 |
| 20260501192750 | 53 | 131 | 1.0 | 7.0 | 0.00 | 0.00 | 0.00 | 67 | 1423.4 |
| 20260501192550 | 53 | 120 | 2.0 | 7.0 | 0.00 | 0.00 | 0.00 | 67 | 1423.5 |
| 20260501192350 | 53 | 131 | 2.0 | 7.0 | 0.00 | 0.00 | 0.00 | 67 | 1423.6 |
| 20260501192150 | 53 | 127 | 2.0 | 5.0 | 0.00 | 0.00 | 0.00 | 67 | 1423.6 |
| 20260501191950 | 53 | 124 | 2.0 | 5.0 | 0.00 | 0.00 | 0.00 | 67 | 1423.7 |
| 20260501191750 | 53 | 150 | 2.0 | 5.0 | 0.00 | 0.00 | 0.00 | 66 | 1423.8 |
| 20260501191550 | 54 | 136 | 1.0 | 5.0 | 0.00 | 0.00 | 0.00 | 66 | 1423.9 |
| 20260501191350 | 54 | 117 | 2.0 | 6.0 | 0.00 | 0.00 | 0.00 | 66 | 1424.1 |
| 20260501191150 | 54 | 130 | 1.0 | 8.0 | 0.00 | 0.00 | 0.00 | 66 | 1424.2 |
| 20260501190950 | 54 | 124 | 2.0 | 8.0 | 0.00 | 0.00 | 0.00 | 66 | 1424.4 |
| 20260501190750 | 54 | 138 | 2.0 | 8.0 | 0.00 | 0.00 | 0.00 | 65 | 1424.5 |
| 20260501190550 | 54 | 127 | 2.0 | 8.0 | 0.00 | 0.00 | 0.00 | 65 | 1424.6 |
| 20260501190350 | 54 | 156 | 2.0 | 8.0 | 0.00 | 0.00 | 0.00 | 65 | 1424.8 |
| 20260501190150 | 54 | 141 | 3.0 | 7.0 | 0.00 | 0.00 | 0.00 | 65 | 1424.9 |
| 20260501185950 | 54 | 123 | 2.0 | 5.0 | 0.00 | 0.00 | 0.00 | 64 | 1425.1 |
| 20260501185750 | 55 | 138 | 2.0 | 6.0 | 0.00 | 0.00 | 0.00 | 64 | 1425.3 |
| 20260501185550 | 55 | 128 | 2.0 | 6.0 | 0.00 | 0.00 | 0.00 | 64 | 1425.4 |
| 20260501185350 | 55 | 130 | 3.0 | 6.0 | 0.00 | 0.00 | 0.00 | 63 | 1425.6 |
| 20260501185150 | 55 | 145 | 2.0 | 6.0 | 0.00 | 0.00 | 0.00 | 63 | 1425.6 |
| 20260501184950 | 55 | 141 | 2.0 | 8.0 | 0.00 | 0.00 | 0.00 | 63 | 1425.8 |
| 20260501184750 | 55 | 143 | 2.0 | 8.0 | 0.00 | 0.00 | 0.00 | 62 | 1425.9 |
| 20260501184550 | 55 | 130 | 2.0 | 8.0 | 0.00 | 0.00 | 0.00 | 62 | 1426.2 |
| 20260501184350 | 55 | 127 | 2.0 | 8.0 | 0.00 | 0.00 | 0.00 | 62 | 1426.4 |
| 20260501184150 | 56 | 136 | 3.0 | 7.0 | 0.00 | 0.00 | 0.00 | 61 | 1426.6 |
| 20260501183950 | 56 | 137 | 3.0 | 7.0 | 0.00 | 0.00 | 0.00 | 60 | 1426.8 |
| 20260501183750 | 56 | 140 | 2.0 | 5.0 | 0.00 | 0.00 | 0.00 | 60 | 1426.9 |
| 20260501183550 | 56 | 115 | 2.0 | 5.0 | 0.00 | 0.00 | 0.00 | 59 | 1427.1 |
| 20260501183350 | 56 | 145 | 2.0 | 6.0 | 0.00 | 0.00 | 0.00 | 59 | 1427.2 |
| 20260501183150 | 56 | 136 | 2.0 | 7.0 | 0.00 | 0.00 | 0.00 | 58 | 1427.4 |
| 20260501182950 | 56 | 138 | 2.0 | 7.0 | 0.00 | 0.00 | 0.00 | 57 | 1427.6 |
| 20260501182750 | 57 | 143 | 3.0 | 7.0 | 0.00 | 0.00 | 0.00 | 57 | 1427.7 |
| 20260501182550 | 57 | 143 | 2.0 | 9.0 | 0.00 | 0.00 | 0.00 | 56 | 1427.9 |
| 20260501182350 | 57 | 142 | 3.0 | 10.0 | 0.00 | 0.00 | 0.00 | 55 | 1427.9 |
| 20260501182151 | 57 | 153 | 3.0 | 10.0 | 0.00 | 0.00 | 0.00 | 55 | 1428.0 |
| 20260501181950 | 57 | 134 | 3.0 | 10.0 | 0.00 | 0.00 | 0.00 | 54 | 1428.1 |
| 20260501181946 | 57 | 134 | 3.0 | 10.0 | 0.00 | 0.00 | 0.00 | 54 | 1428.1 |
| 20260501181750 | 57 | 153 | 3.0 | 10.0 | 0.00 | 0.00 | 0.00 | 54 | 1428.4 |
| 20260501181550 | 57 | 172 | 3.0 | 10.0 | 0.00 | 0.00 | 0.00 | 53 | 1428.9 |
| 20260501181350 | 58 | 166 | 3.0 | 8.0 | 0.00 | 0.00 | 0.00 | 52 | 1429.8 |
| 20260501181150 | 59 | 161 | 3.0 | 8.0 | 0.00 | 0.00 | 0.00 | 51 | 1431.4 |
| 20260501181146 | 59 | 161 | 3.0 | 8.0 | 0.00 | 0.00 | 0.00 | 51 | 1431.4 |
| 20260501180950 | 60 | 152 | 4.0 | 8.0 | 0.00 | 0.00 | 0.00 | 51 | 1432.2 |
| 20260501180823 | 60 | 144 | 3.0 | 8.0 | 0.00 | 0.00 | 0.00 | 51 | 1432.4 |
| 20260501180750 | 60 | 144 | 3.0 | 8.0 | 0.00 | 0.00 | 0.00 | 51 | 1432.4 |
| 20260501180746 | 60 | 144 | 3.0 | 8.0 | 0.00 | 0.00 | 0.00 | 51 | 1432.4 |
| 20260501180550 | 60 | 150 | 3.0 | 8.0 | 0.00 | 0.00 | 0.00 | 51 | 1432.6 |
| 20260501180350 | 60 | 145 | 3.0 | 8.0 | 0.00 | 0.00 | 0.00 | 52 | 1432.7 |
| 20260501180150 | 60 | 134 | 2.0 | 7.0 | 0.00 | 0.00 | 0.00 | 52 | 1432.9 |
| 20260501180146 | 60 | 134 | 2.0 | 7.0 | 0.00 | 0.00 | 0.00 | 52 | 1432.9 |
| 20260501175950 | 60 | 147 | 3.0 | 7.0 | 0.00 | 0.00 | 0.00 | 52 | 1433.0 |
| 20260501175946 | 60 | 147 | 3.0 | 7.0 | 0.00 | 0.00 | 0.00 | 52 | 1433.0 |
| 20260501175750 | 61 | 136 | 2.0 | 6.0 | 0.00 | 0.00 | 0.00 | 52 | 1433.4 |
| 20260501175746 | 61 | 136 | 2.0 | 6.0 | 0.00 | 0.00 | 0.00 | 52 | 1433.4 |
| 20260501175550 | 61 | 140 | 2.0 | 6.0 | 0.00 | 0.00 | 0.00 | 52 | 1433.7 |
| 20260501175350 | 61 | 150 | 2.0 | 6.0 | 0.00 | 0.00 | 0.00 | 52 | 1433.6 |
| 20260501175346 | 61 | 150 | 2.0 | 6.0 | 0.00 | 0.00 | 0.00 | 52 | 1433.6 |
| 20260501175150 | 61 | 141 | 2.0 | 6.0 | 0.00 | 0.00 | 0.00 | 53 | 1433.6 |
| 20260501174950 | 61 | 154 | 2.0 | 6.0 | 0.00 | 0.00 | 0.00 | 52 | 1434.0 |
| 20260501174946 | 61 | 154 | 2.0 | 6.0 | 0.00 | 0.00 | 0.00 | 52 | 1434.0 |
| 20260501174750 | 62 | 127 | 2.0 | 8.0 | 0.00 | 0.00 | 0.00 | 52 | 1434.4 |
| 20260501174550 | 62 | 124 | 2.0 | 8.0 | 0.00 | 0.00 | 0.00 | 53 | 1434.7 |
| 20260501174350 | 62 | 150 | 2.0 | 8.0 | 0.00 | 0.00 | 0.00 | 52 | 1435.1 |
| 20260501174346 | 62 | 150 | 2.0 | 8.0 | 0.00 | 0.00 | 0.00 | 52 | 1435.1 |
| 20260501174150 | 62 | 138 | 2.0 | 8.0 | 0.00 | 0.00 | 0.00 | 52 | 1435.0 |
| 20260501173950 | 62 | 139 | 3.0 | 8.0 | 0.00 | 0.00 | 0.00 | 51 | 1435.2 |
| 20260501173751 | 63 | 139 | 2.0 | 6.0 | 0.00 | 0.00 | 0.00 | 50 | 1435.9 |
| 20260501173550 | 63 | 167 | 2.0 | 6.0 | 0.00 | 0.00 | 0.00 | 49 | 1436.6 |
| 20260501173350 | 64 | 150 | 2.0 | 6.0 | 0.00 | 0.00 | 0.00 | 49 | 1437.0 |
| 20260501173150 | 64 | 138 | 2.0 | 4.0 | 0.00 | 0.00 | 0.00 | 49 | 1437.6 |
| 20260501172950 | 64 | 147 | 2.0 | 4.0 | 0.00 | 0.00 | 0.00 | 49 | 1437.8 |
| 20260501172750 | 64 | 166 | 2.0 | 8.0 | 0.00 | 0.00 | 0.00 | 48 | 1437.9 |
| 20260501172550 | 64 | 158 | 2.0 | 8.0 | 0.00 | 0.00 | 0.00 | 48 | 1437.8 |
| 20260501172350 | 64 | 141 | 2.0 | 8.0 | 0.00 | 0.00 | 0.00 | 48 | 1437.6 |
| 20260501172150 | 64 | 138 | 2.0 | 8.0 | 0.00 | 0.00 | 0.00 | 48 | 1437.6 |
| 20260501171950 | 64 | 164 | 3.0 | 8.0 | 0.00 | 0.00 | 0.00 | 47 | 1437.7 |
| 20260501171750 | 65 | 154 | 2.0 | 6.0 | 0.00 | 0.00 | 0.00 | 48 | 1438.2 |
| 20260501171550 | 65 | 169 | 2.0 | 8.0 | 0.00 | 0.00 | 0.00 | 48 | 1438.3 |
| 20260501171350 | 65 | 167 | 2.0 | 8.0 | 0.00 | 0.00 | 0.00 | 48 | 1438.2 |
| 20260501171150 | 64 | 183 | 2.0 | 8.0 | 0.00 | 0.00 | 0.00 | 48 | 1438.1 |
| 20260501170950 | 64 | 156 | 2.0 | 9.0 | 0.00 | 0.00 | 0.00 | 48 | 1437.8 |
| 20260501170750 | 64 | 168 | 4.0 | 9.0 | 0.00 | 0.00 | 0.00 | 48 | 1437.8 |
| 20260501170550 | 65 | 146 | 2.0 | 9.0 | 0.00 | 0.00 | 0.00 | 48 | 1438.4 |
| 20260501170350 | 65 | 139 | 1.0 | 12.0 | 0.00 | 0.00 | 0.00 | 49 | 1438.3 |
| 20260501170150 | 64 | 161 | 3.0 | 12.0 | 0.00 | 0.00 | 0.00 | 48 | 1437.8 |
| 20260501165950 | 64 | 163 | 3.0 | 12.0 | 0.00 | 0.00 | 0.00 | 49 | 1438.2 |
| 20260501165750 | 64 | 158 | 2.0 | 12.0 | 0.00 | 0.00 | 0.00 | 49 | 1438.1 |
| 20260501165550 | 64 | 167 | 3.0 | 12.0 | 0.00 | 0.00 | 0.00 | 49 | 1437.9 |
| 20260501165352 | 64 | 172 | 3.0 | 8.0 | 0.00 | 0.00 | 0.00 | 49 | 1437.8 |
| 20260501165152 | 64 | 174 | 3.0 | 8.0 | 0.00 | 0.00 | 0.00 | 49 | 1437.3 |
| 20260501165150 | 64 | 174 | 3.0 | 8.0 | 0.00 | 0.00 | 0.00 | 49 | 1437.3 |
| 20260501164950 | 64 | 198 | 3.0 | 8.0 | 0.00 | 0.00 | 0.00 | 49 | 1437.9 |
| 20260501164750 | 65 | 179 | 3.0 | 7.0 | 0.00 | 0.00 | 0.00 | 48 | 1438.8 |
| 20260501164550 | 65 | 178 | 2.0 | 7.0 | 0.00 | 0.00 | 0.00 | 48 | 1439.0 |
| 20260501164352 | 65 | 182 | 2.0 | 7.0 | 0.00 | 0.00 | 0.00 | 49 | 1439.3 |
| 20260501164350 | 65 | 182 | 2.0 | 7.0 | 0.00 | 0.00 | 0.00 | 49 | 1439.3 |
| 20260501164152 | 65 | 181 | 1.0 | 7.0 | 0.00 | 0.00 | 0.00 | 49 | 1439.3 |
| 20260501164150 | 65 | 181 | 1.0 | 7.0 | 0.00 | 0.00 | 0.00 | 49 | 1439.3 |
| 20260501163950 | 65 | 170 | 2.0 | 7.0 | 0.00 | 0.00 | 0.00 | 49 | 1438.3 |
| 20260501163750 | 65 | 196 | 3.0 | 8.0 | 0.00 | 0.00 | 0.00 | 49 | 1438.5 |
| 20260501163551 | 65 | 155 | 2.0 | 9.0 | 0.00 | 0.00 | 0.00 | 49 | 1438.5 |
| 20260501163350 | 64 | 179 | 2.0 | 9.0 | 0.00 | 0.00 | 0.00 | 49 | 1438.0 |
| 20260501163150 | 65 | 167 | 3.0 | 9.0 | 0.00 | 0.00 | 0.00 | 49 | 1438.4 |
| 20260501162950 | 65 | 174 | 3.0 | 9.0 | 0.00 | 0.00 | 0.00 | 48 | 1439.3 |
| 20260501162750 | 66 | 169 | 2.0 | 9.0 | 0.00 | 0.00 | 0.00 | 47 | 1439.8 |
| 20260501162550 | 66 | 185 | 2.0 | 7.0 | 0.00 | 0.00 | 0.00 | 48 | 1440.3 |
| 20260501162350 | 66 | 168 | 2.0 | 7.0 | 0.00 | 0.00 | 0.00 | 48 | 1439.8 |
| 20260501162150 | 66 | 188 | 2.0 | 11.0 | 0.00 | 0.00 | 0.00 | 48 | 1439.7 |
| 20260501161950 | 65 | 180 | 1.0 | 11.0 | 0.00 | 0.00 | 0.00 | 49 | 1439.0 |
| 20260501161750 | 64 | 189 | 2.0 | 11.0 | 0.00 | 0.00 | 0.00 | 49 | 1438.1 |
| 20260501161550 | 64 | 192 | 3.0 | 11.0 | 0.00 | 0.00 | 0.00 | 48 | 1437.9 |
| 20260501161352 | 65 | 160 | 3.0 | 11.0 | 0.00 | 0.00 | 0.00 | 48 | 1438.6 |
| 20260501161350 | 65 | 160 | 3.0 | 11.0 | 0.00 | 0.00 | 0.00 | 48 | 1438.6 |
| 20260501161150 | 65 | 217 | 2.0 | 10.0 | 0.00 | 0.00 | 0.00 | 48 | 1439.2 |
| 20260501160950 | 65 | 200 | 2.0 | 10.0 | 0.00 | 0.00 | 0.00 | 49 | 1439.0 |
| 20260501160750 | 65 | 182 | 2.0 | 9.0 | 0.00 | 0.00 | 0.00 | 49 | 1439.0 |
| 20260501160550 | 65 | 148 | 2.0 | 10.0 | 0.00 | 0.00 | 0.00 | 49 | 1438.5 |
| 20260501160545 | 65 | 182 | 3.0 | 10.0 | 0.00 | 0.00 | 0.00 | 49 | 1438.5 |
| 20260501160150 | 65 | 145 | 2.0 | 10.0 | 0.00 | 0.00 | 0.00 | 49 | 1438.5 |
| 20260501155950 | 64 | 170 | 2.0 | 10.0 | 0.00 | 0.00 | 0.00 | 49 | 1437.9 |
| 20260501155752 | 65 | 163 | 2.0 | 10.0 | 0.00 | 0.00 | 0.00 | 48 | 1438.8 |
| 20260501155750 | 65 | 163 | 2.0 | 10.0 | 0.00 | 0.00 | 0.00 | 48 | 1438.8 |
| 20260501155550 | 65 | 146 | 2.0 | 6.0 | 0.00 | 0.00 | 0.00 | 49 | 1438.8 |
| 20260501155350 | 65 | 165 | 2.0 | 6.0 | 0.00 | 0.00 | 0.00 | 49 | 1438.4 |
| 20260501155150 | 65 | 178 | 2.0 | 6.0 | 0.00 | 0.00 | 0.00 | 48 | 1438.3 |
| 20260501154950 | 64 | 170 | 2.0 | 7.0 | 0.00 | 0.00 | 0.00 | 49 | 1438.0 |
| 20260501154752 | 64 | 172 | 3.0 | 11.0 | 0.00 | 0.00 | 0.00 | 49 | 1437.5 |
| 20260501154750 | 64 | 172 | 3.0 | 11.0 | 0.00 | 0.00 | 0.00 | 49 | 1437.5 |
| 20260501154552 | 64 | 182 | 2.0 | 11.0 | 0.00 | 0.00 | 0.00 | 50 | 1436.9 |
| 20260501154550 | 64 | 182 | 2.0 | 11.0 | 0.00 | 0.00 | 0.00 | 50 | 1436.9 |
| 20260501154352 | 63 | 186 | 3.0 | 11.0 | 0.00 | 0.00 | 0.00 | 51 | 1436.2 |
| 20260501154350 | 63 | 186 | 3.0 | 11.0 | 0.00 | 0.00 | 0.00 | 51 | 1436.2 |
| 20260501154152 | 62 | 163 | 2.0 | 11.0 | 0.00 | 0.00 | 0.00 | 52 | 1435.4 |
| 20260501154150 | 62 | 163 | 2.0 | 11.0 | 0.00 | 0.00 | 0.00 | 52 | 1435.4 |
| 20260501153952 | 62 | 169 | 5.0 | 11.0 | 0.00 | 0.00 | 0.00 | 51 | 1434.7 |
| 20260501153950 | 62 | 169 | 5.0 | 11.0 | 0.00 | 0.00 | 0.00 | 51 | 1434.7 |
| 20260501153750 | 62 | 153 | 2.0 | 10.0 | 0.00 | 0.00 | 0.00 | 52 | 1435.3 |
| 20260501153550 | 62 | 170 | 5.0 | 10.0 | 0.00 | 0.00 | 0.00 | 51 | 1435.2 |
| 20260501153350 | 62 | 187 | 3.0 | 15.0 | 0.00 | 0.00 | 0.00 | 51 | 1435.4 |
| 20260501153150 | 62 | 144 | 2.0 | 15.0 | 0.00 | 0.00 | 0.00 | 52 | 1435.2 |
| 20260501152951 | 62 | 173 | 3.0 | 15.0 | 0.00 | 0.00 | 0.00 | 52 | 1434.4 |
| 20260501152753 | 61 | 181 | 6.0 | 15.0 | 0.00 | 0.00 | 0.00 | 51 | 1434.0 |
| 20260501152750 | 61 | 181 | 6.0 | 15.0 | 0.00 | 0.00 | 0.00 | 51 | 1434.0 |
| 20260501152552 | 62 | 183 | 4.0 | 11.0 | 0.00 | 0.00 | 0.00 | 52 | 1434.6 |
| 20260501152550 | 62 | 183 | 4.0 | 11.0 | 0.00 | 0.00 | 0.00 | 52 | 1434.6 |
| 20260501152350 | 62 | 174 | 3.0 | 11.0 | 0.00 | 0.00 | 0.00 | 51 | 1434.6 |
| 20260501152150 | 62 | 184 | 4.0 | 11.0 | 0.00 | 0.00 | 0.00 | 51 | 1434.7 |
| 20260501151950 | 62 | 172 | 4.0 | 10.0 | 0.00 | 0.00 | 0.00 | 50 | 1435.2 |
| 20260501151752 | 62 | 190 | 4.0 | 10.0 | 0.00 | 0.00 | 0.00 | 50 | 1435.4 |
| 20260501151750 | 62 | 190 | 4.0 | 10.0 | 0.00 | 0.00 | 0.00 | 50 | 1435.4 |
| 20260501151552 | 63 | 184 | 3.0 | 11.0 | 0.00 | 0.00 | 0.00 | 50 | 1436.2 |
| 20260501151550 | 63 | 184 | 3.0 | 11.0 | 0.00 | 0.00 | 0.00 | 50 | 1436.2 |
| 20260501151352 | 63 | 177 | 3.0 | 11.0 | 0.00 | 0.00 | 0.00 | 51 | 1436.2 |
| 20260501151350 | 63 | 177 | 3.0 | 11.0 | 0.00 | 0.00 | 0.00 | 51 | 1436.2 |
| 20260501151152 | 63 | 162 | 4.0 | 11.0 | 0.00 | 0.00 | 0.00 | 50 | 1435.8 |
| 20260501151150 | 63 | 162 | 4.0 | 11.0 | 0.00 | 0.00 | 0.00 | 50 | 1435.8 |
| 20260501150950 | 63 | 163 | 4.0 | 11.0 | 0.00 | 0.00 | 0.00 | 50 | 1436.1 |
| 20260501150752 | 63 | 172 | 3.0 | 11.0 | 0.00 | 0.00 | 0.00 | 51 | 1436.2 |
| 20260501150750 | 63 | 172 | 3.0 | 11.0 | 0.00 | 0.00 | 0.00 | 51 | 1436.2 |
| 20260501150550 | 63 | 184 | 4.0 | 11.0 | 0.00 | 0.00 | 0.00 | 50 | 1436.0 |
| 20260501150350 | 63 | 165 | 3.0 | 11.0 | 0.00 | 0.00 | 0.00 | 50 | 1436.8 |
| 20260501150150 | 64 | 195 | 5.0 | 11.0 | 0.00 | 0.00 | 0.00 | 48 | 1437.7 |